VJT29 MDPC-LFLY

Flight info

Callsign VJT29
Flight time 9h 2m
Altitude 34000
Route KATOK2W KATOK MUNOZ YAAYA ODUCA OPAUL FIVZE 32N050W 37N040W 41N030W 43N020W 44N010W 45N000E MEZIN
Aircraft B738/M-SDE2E3FGHIRWXY/LB1

Departure

Time 2026-05-06 13:20
Airport Punta Cana International Airport (MDPC)

Arrival

Time 2026-05-06 22:23
Airport Lyon Bron Airport (LFLY)
Time Latitude Longitude Altitude Speed Heading
2026-05-06 13:04 18.56374 -68.36511 50 ft 0 kts 175°
2026-05-06 13:11 18.56373 -68.36509 23 ft 1 kts 159°
2026-05-06 13:11 18.56375 -68.36500 46 ft 2 kts 65°
2026-05-06 13:12 18.56391 -68.36501 48 ft 5 kts 345°
2026-05-06 13:12 18.56436 -68.36514 50 ft 1 kts 345°
2026-05-06 13:12 18.56444 -68.36522 50 ft 4 kts 308°
2026-05-06 13:12 18.56465 -68.36591 48 ft 15 kts 296°
2026-05-06 13:13 18.56524 -68.36692 49 ft 14 kts 286°
2026-05-06 13:13 18.56521 -68.36767 51 ft 10 kts 273°
2026-05-06 13:13 18.56521 -68.36840 51 ft 10 kts 264°
2026-05-06 13:13 18.56514 -68.36910 51 ft 10 kts 264°
2026-05-06 13:14 18.56507 -68.36979 52 ft 9 kts 265°
2026-05-06 13:14 18.56504 -68.37026 50 ft 10 kts 265°
2026-05-06 13:14 18.56495 -68.37123 52 ft 17 kts 265°
2026-05-06 13:14 18.56482 -68.37271 52 ft 21 kts 265°
2026-05-06 13:15 18.56464 -68.37474 53 ft 21 kts 264°
2026-05-06 13:15 18.56455 -68.37574 53 ft 20 kts 264°
2026-05-06 13:15 18.56443 -68.37708 54 ft 13 kts 265°
2026-05-06 13:15 18.56473 -68.37780 53 ft 12 kts 345°
2026-05-06 13:16 18.56554 -68.37794 54 ft 12 kts 357°
2026-05-06 13:16 18.56633 -68.37799 51 ft 11 kts 354°
2026-05-06 13:16 18.56696 -68.37838 51 ft 11 kts 301°
2026-05-06 13:16 18.56727 -68.37910 50 ft 11 kts 294°
2026-05-06 13:17 18.56757 -68.37980 49 ft 10 kts 294°
2026-05-06 13:17 18.56786 -68.38048 52 ft 10 kts 295°
2026-05-06 13:17 18.56815 -68.38114 50 ft 10 kts 295°
2026-05-06 13:17 18.56844 -68.38178 49 ft 10 kts 295°
2026-05-06 13:18 18.56875 -68.38237 49 ft 9 kts 316°
2026-05-06 13:18 18.56934 -68.38264 52 ft 9 kts 341°
2026-05-06 13:18 18.56992 -68.38286 52 ft 9 kts 341°
2026-05-06 13:18 18.57047 -68.38280 52 ft 8 kts 56°
2026-05-06 13:19 18.57056 -68.38230 52 ft 5 kts 78°
2026-05-06 13:19 18.57058 -68.38223 52 ft 0 kts 75°
2026-05-06 13:19 18.57059 -68.38221 52 ft 2 kts 75°
2026-05-06 13:20 18.57100 -68.38079 51 ft 54 kts 76°
2026-05-06 13:20 18.57270 -68.37440 48 ft 127 kts 73°
2026-05-06 13:20 18.57564 -68.36322 57 ft 185 kts 81°
2026-05-06 13:20 18.57866 -68.34961 735 ft 197 kts 82°
2026-05-06 13:21 18.58217 -68.33542 1411 ft 206 kts 73°
2026-05-06 13:21 18.58699 -68.32101 1990 ft 209 kts 75°
2026-05-06 13:21 18.59147 -68.30643 2558 ft 206 kts 70°
2026-05-06 13:21 18.59965 -68.29433 3136 ft 204 kts 51°
2026-05-06 13:22 18.60894 -68.28300 3709 ft 202 kts 53°
2026-05-06 13:22 18.61787 -68.27180 4267 ft 200 kts 53°
2026-05-06 13:22 18.62704 -68.26026 4617 ft 209 kts 53°
2026-05-06 13:22 18.63658 -68.24823 4987 ft 217 kts 52°
2026-05-06 13:23 18.64633 -68.23594 5364 ft 224 kts 52°
2026-05-06 13:23 18.65651 -68.22300 5747 ft 232 kts 52°
2026-05-06 13:23 18.66687 -68.20977 6115 ft 239 kts 53°
2026-05-06 13:23 18.67774 -68.19586 6470 ft 249 kts 53°
2026-05-06 13:24 18.68880 -68.18171 6921 ft 255 kts 52°
2026-05-06 13:24 18.70029 -68.16702 7430 ft 262 kts 52°
2026-05-06 13:24 18.71196 -68.15211 7934 ft 268 kts 52°
2026-05-06 13:24 18.72404 -68.13667 8471 ft 274 kts 52°
2026-05-06 13:25 18.73628 -68.12100 8988 ft 280 kts 52°
2026-05-06 13:25 18.74873 -68.10507 9522 ft 286 kts 52°
2026-05-06 13:25 18.76162 -68.08858 10063 ft 292 kts 52°
2026-05-06 13:25 18.77470 -68.07184 10552 ft 298 kts 51°
2026-05-06 13:26 18.78801 -68.05480 10950 ft 308 kts 51°
2026-05-06 13:26 18.80196 -68.03692 11298 ft 320 kts 51°
2026-05-06 13:26 18.81618 -68.01871 11650 ft 330 kts 51°
2026-05-06 13:26 18.83110 -67.99959 12007 ft 340 kts 51°
2026-05-06 13:27 18.84626 -67.98011 12361 ft 350 kts 51°
2026-05-06 13:27 18.86203 -67.95977 12720 ft 359 kts 51°
2026-05-06 13:27 18.87777 -67.93937 13079 ft 367 kts 51°
2026-05-06 13:27 18.89413 -67.91813 13436 ft 374 kts 51°
2026-05-06 13:28 18.91076 -67.89643 13793 ft 380 kts 51°
2026-05-06 13:28 18.92727 -67.87480 14123 ft 382 kts 51°
2026-05-06 13:28 18.94386 -67.85298 14432 ft 384 kts 51°
2026-05-06 13:28 18.96063 -67.83083 14754 ft 385 kts 51°
2026-05-06 13:29 18.97728 -67.80879 15076 ft 387 kts 51°
2026-05-06 13:29 18.99416 -67.78638 15403 ft 388 kts 51°
2026-05-06 13:29 19.01102 -67.76393 15740 ft 389 kts 51°
2026-05-06 13:29 19.02766 -67.74174 16071 ft 389 kts 51°
2026-05-06 13:30 19.04456 -67.71912 16412 ft 390 kts 51°
2026-05-06 13:30 19.06133 -67.69661 16749 ft 392 kts 51°
2026-05-06 13:30 19.07805 -67.67414 17094 ft 393 kts 51°
2026-05-06 13:30 19.09508 -67.65119 17446 ft 395 kts 51°
2026-05-06 13:31 19.11209 -67.62822 17807 ft 397 kts 51°
2026-05-06 13:31 19.12914 -67.60514 18172 ft 402 kts 51°
2026-05-06 13:31 19.14653 -67.58156 18525 ft 407 kts 51°
2026-05-06 13:31 19.16381 -67.55812 18840 ft 411 kts 51°
2026-05-06 13:32 19.18151 -67.53403 19159 ft 412 kts 51°
2026-05-06 13:32 19.19920 -67.50988 19481 ft 414 kts 51°
2026-05-06 13:32 19.21668 -67.48594 19800 ft 415 kts 51°
2026-05-06 13:32 19.23445 -67.46151 20126 ft 416 kts 51°
2026-05-06 13:33 19.25186 -67.43753 20455 ft 416 kts 51°
2026-05-06 13:33 19.26957 -67.41308 20787 ft 417 kts 51°
2026-05-06 13:33 19.28733 -67.38855 21129 ft 417 kts 51°
2026-05-06 13:33 19.30482 -67.36431 21468 ft 417 kts 51°
2026-05-06 13:34 19.32232 -67.34006 21808 ft 418 kts 51°
2026-05-06 13:34 19.34004 -67.31546 22160 ft 419 kts 51°
2026-05-06 13:34 19.35764 -67.29098 22514 ft 420 kts 51°
2026-05-06 13:34 19.37544 -67.26620 22877 ft 421 kts 51°
2026-05-06 13:35 19.39321 -67.24141 23246 ft 422 kts 51°
2026-05-06 13:35 19.41091 -67.21669 23606 ft 423 kts 51°
2026-05-06 13:35 19.42864 -67.19190 23927 ft 424 kts 51°
2026-05-06 13:35 19.44653 -67.16685 24237 ft 425 kts 51°
2026-05-06 13:36 19.46423 -67.14202 24541 ft 425 kts 51°
2026-05-06 13:36 19.48214 -67.11684 24853 ft 426 kts 51°
2026-05-06 13:36 19.50003 -67.09162 25172 ft 426 kts 51°
2026-05-06 13:36 19.51768 -67.06671 25485 ft 427 kts 51°
2026-05-06 13:37 19.53569 -67.04121 25811 ft 427 kts 51°
2026-05-06 13:37 19.55340 -67.01613 26135 ft 428 kts 51°
2026-05-06 13:37 19.57106 -66.99109 26460 ft 428 kts 51°
2026-05-06 13:37 19.58904 -66.96559 26794 ft 428 kts 51°
2026-05-06 13:38 19.60687 -66.94023 27130 ft 428 kts 51°
2026-05-06 13:38 19.62444 -66.91516 27465 ft 428 kts 51°
2026-05-06 13:38 19.64232 -66.88958 27812 ft 427 kts 51°
2026-05-06 13:38 19.65983 -66.86444 28157 ft 427 kts 51°
2026-05-06 13:39 19.67751 -66.83901 28498 ft 426 kts 51°
2026-05-06 13:39 19.69497 -66.81383 28864 ft 426 kts 51°
2026-05-06 13:39 19.71259 -66.78832 29224 ft 425 kts 51°
2026-05-06 13:39 19.73001 -66.76305 29588 ft 424 kts 51°
2026-05-06 13:40 19.74741 -66.73769 29956 ft 423 kts 51°
2026-05-06 13:40 19.76459 -66.71261 30310 ft 421 kts 51°
2026-05-06 13:40 19.78165 -66.68763 30621 ft 420 kts 51°
2026-05-06 13:40 19.79879 -66.66249 30938 ft 418 kts 51°
2026-05-06 13:41 19.81570 -66.63762 31264 ft 416 kts 51°
2026-05-06 13:41 19.83258 -66.61272 31589 ft 414 kts 51°
2026-05-06 13:41 19.84947 -66.58777 31903 ft 412 kts 51°
2026-05-06 13:41 19.86600 -66.56332 32247 ft 409 kts 51°
2026-05-06 13:42 19.88262 -66.53866 32576 ft 406 kts 51°
2026-05-06 13:42 19.89883 -66.51459 32910 ft 402 kts 51°
2026-05-06 13:42 19.91519 -66.49024 33045 ft 406 kts 51°
2026-05-06 13:43 19.94856 -66.44068 33046 ft 417 kts 51°
2026-05-06 13:43 19.98283 -66.38991 33053 ft 429 kts 51°
2026-05-06 13:44 20.01815 -66.33777 33056 ft 440 kts 51°
2026-05-06 13:44 20.05442 -66.28439 33055 ft 450 kts 51°
2026-05-06 13:45 20.09127 -66.23023 33042 ft 453 kts 51°
2026-05-06 13:45 20.14575 -66.15008 33036 ft 442 kts 51°
2026-05-06 13:46 20.18193 -66.09680 33046 ft 443 kts 51°
2026-05-06 13:46 20.21801 -66.04370 33049 ft 444 kts 51°
2026-05-06 13:47 20.25421 -65.99041 33046 ft 445 kts 51°
2026-05-06 13:47 20.29056 -65.93694 33047 ft 446 kts 51°
2026-05-06 13:48 20.32690 -65.88344 33047 ft 447 kts 51°
2026-05-06 13:48 20.36353 -65.82950 33049 ft 447 kts 51°
2026-05-06 13:49 20.40003 -65.77574 33052 ft 448 kts 51°
2026-05-06 13:49 20.43653 -65.72199 33050 ft 448 kts 51°
2026-05-06 13:50 20.47310 -65.66812 33055 ft 448 kts 51°
2026-05-06 13:50 20.50956 -65.61446 33052 ft 448 kts 51°
2026-05-06 13:51 20.54617 -65.56060 33050 ft 448 kts 51°
2026-05-06 13:51 20.58286 -65.50660 33046 ft 448 kts 51°
2026-05-06 13:52 20.61988 -65.45221 33054 ft 459 kts 51°
2026-05-06 13:52 20.65789 -65.39647 33060 ft 470 kts 51°
2026-05-06 13:53 20.69682 -65.33947 33058 ft 479 kts 51°
2026-05-06 13:53 20.73639 -65.28168 33056 ft 488 kts 51°
2026-05-06 13:54 20.77695 -65.22262 33049 ft 492 kts 51°
2026-05-06 13:54 20.81765 -65.16344 33051 ft 493 kts 51°
2026-05-06 13:55 20.85805 -65.10475 33047 ft 494 kts 51°
2026-05-06 13:55 20.89889 -65.04547 33048 ft 493 kts 51°
2026-05-06 13:56 20.93965 -64.98633 33048 ft 493 kts 51°
2026-05-06 13:56 20.98029 -64.92736 33050 ft 492 kts 51°
2026-05-06 13:57 21.02093 -64.86854 33055 ft 492 kts 51°
2026-05-06 13:57 21.06152 -64.80985 33056 ft 491 kts 51°
2026-05-06 13:58 21.10214 -64.75121 33053 ft 491 kts 51°
2026-05-06 13:58 21.13609 -64.70223 33055 ft 490 kts 51°
2026-05-06 13:59 21.17675 -64.64364 33056 ft 490 kts 51°
2026-05-06 13:59 21.22415 -64.57540 33061 ft 490 kts 51°
2026-05-06 14:00 21.26481 -64.51695 33060 ft 490 kts 51°
2026-05-06 14:00 21.29899 -64.46787 33059 ft 490 kts 51°
2026-05-06 14:01 21.33977 -64.40936 33060 ft 490 kts 51°
2026-05-06 14:01 21.38051 -64.35097 33063 ft 490 kts 51°
2026-05-06 14:02 21.42143 -64.29236 33065 ft 491 kts 51°
2026-05-06 14:02 21.46234 -64.23379 33066 ft 491 kts 51°
2026-05-06 14:03 21.50340 -64.17498 33066 ft 491 kts 51°
2026-05-06 14:03 21.54419 -64.11657 33063 ft 491 kts 51°
2026-05-06 14:04 21.58520 -64.05783 33058 ft 491 kts 51°
2026-05-06 14:04 21.62616 -63.99913 33075 ft 491 kts 51°
2026-05-06 14:05 21.66711 -63.94042 33074 ft 491 kts 51°
2026-05-06 14:05 21.70832 -63.88129 33068 ft 492 kts 51°
2026-05-06 14:06 21.74935 -63.82243 33068 ft 492 kts 51°
2026-05-06 14:06 21.79032 -63.76362 33070 ft 492 kts 51°
2026-05-06 14:07 21.83140 -63.70462 33074 ft 493 kts 51°
2026-05-06 14:07 21.87256 -63.64549 33067 ft 493 kts 51°
2026-05-06 14:08 21.91345 -63.58669 33075 ft 493 kts 51°
2026-05-06 14:08 21.95453 -63.52761 33071 ft 493 kts 51°
2026-05-06 14:09 21.99558 -63.46852 33070 ft 493 kts 51°
2026-05-06 14:09 22.03690 -63.40897 33076 ft 494 kts 51°
2026-05-06 14:10 22.07778 -63.35003 33074 ft 494 kts 51°
2026-05-06 14:10 22.11911 -63.29041 33074 ft 494 kts 51°
2026-05-06 14:11 22.16007 -63.23125 33070 ft 494 kts 51°
2026-05-06 14:11 22.20136 -63.17164 33075 ft 495 kts 51°
2026-05-06 14:12 22.24257 -63.11218 33069 ft 495 kts 51°
2026-05-06 14:12 22.28384 -63.05264 33071 ft 496 kts 51°
2026-05-06 14:13 22.32522 -62.99294 33075 ft 496 kts 51°
2026-05-06 14:13 22.36657 -62.93331 33073 ft 497 kts 51°
2026-05-06 14:14 22.40808 -62.87346 33074 ft 497 kts 51°
2026-05-06 14:14 22.44941 -62.81391 33071 ft 498 kts 51°
2026-05-06 14:15 22.49107 -62.75390 33077 ft 498 kts 51°
2026-05-06 14:15 22.53254 -62.69419 33077 ft 499 kts 51°
2026-05-06 14:16 22.57424 -62.63421 33078 ft 499 kts 51°
2026-05-06 14:16 22.61624 -62.57384 33076 ft 500 kts 51°
2026-05-06 14:17 22.65807 -62.51379 33077 ft 500 kts 51°
2026-05-06 14:17 22.69990 -62.45384 33080 ft 501 kts 51°
2026-05-06 14:18 22.74206 -62.39349 33082 ft 502 kts 51°
2026-05-06 14:18 22.78435 -62.33306 33078 ft 502 kts 51°
2026-05-06 14:19 22.82651 -62.27293 33077 ft 503 kts 51°
2026-05-06 14:19 22.86865 -62.21284 33078 ft 503 kts 51°
2026-05-06 14:20 22.91121 -62.15224 33075 ft 504 kts 51°
2026-05-06 14:20 22.95369 -62.09184 33081 ft 504 kts 51°
2026-05-06 14:21 22.99633 -62.03130 33081 ft 504 kts 51°
2026-05-06 14:21 23.03890 -61.97095 33078 ft 505 kts 51°
2026-05-06 14:22 23.08164 -61.91048 33084 ft 505 kts 51°
2026-05-06 14:22 23.12464 -61.84975 33082 ft 505 kts 51°
2026-05-06 14:23 23.16730 -61.78962 33082 ft 506 kts 51°
2026-05-06 14:23 23.21043 -61.72895 33082 ft 506 kts 51°
2026-05-06 14:24 23.25366 -61.66822 33086 ft 507 kts 51°
2026-05-06 14:24 23.29664 -61.60799 33085 ft 507 kts 51°
2026-05-06 14:25 23.34006 -61.54720 33084 ft 508 kts 51°
2026-05-06 14:25 23.38337 -61.48666 33084 ft 508 kts 51°
2026-05-06 14:26 23.42702 -61.42575 33087 ft 509 kts 51°
2026-05-06 14:26 23.47061 -61.36504 33089 ft 509 kts 51°
2026-05-06 14:27 23.51430 -61.30431 33086 ft 510 kts 51°
2026-05-06 14:27 23.55826 -61.24331 33085 ft 511 kts 51°
2026-05-06 14:28 23.60209 -61.18256 33086 ft 511 kts 51°
2026-05-06 14:28 23.64619 -61.12156 33091 ft 512 kts 51°
2026-05-06 14:29 23.69037 -61.06050 33087 ft 512 kts 51°
2026-05-06 14:29 23.73458 -60.99953 33089 ft 513 kts 51°
2026-05-06 14:30 23.77880 -60.93860 33086 ft 513 kts 51°
2026-05-06 14:30 23.82338 -60.87726 33088 ft 514 kts 51°
2026-05-06 14:31 23.86766 -60.81637 33088 ft 514 kts 51°
2026-05-06 14:31 23.91231 -60.75504 33087 ft 515 kts 51°
2026-05-06 14:32 23.95690 -60.69385 33094 ft 515 kts 51°
2026-05-06 14:32 24.00146 -60.63278 33086 ft 515 kts 51°
2026-05-06 14:33 24.04622 -60.57151 33092 ft 515 kts 51°
2026-05-06 14:33 24.09103 -60.51022 33087 ft 516 kts 51°
2026-05-06 14:34 24.13595 -60.44882 33092 ft 516 kts 51°
2026-05-06 14:34 24.18091 -60.38745 33094 ft 516 kts 51°
2026-05-06 14:35 24.22570 -60.32635 33094 ft 517 kts 51°
2026-05-06 14:35 24.27081 -60.26490 33093 ft 517 kts 51°
2026-05-06 14:36 24.31585 -60.20356 33090 ft 517 kts 51°
2026-05-06 14:36 24.36102 -60.14208 33088 ft 517 kts 51°
2026-05-06 14:37 24.40618 -60.08065 33088 ft 518 kts 51°
2026-05-06 14:37 24.45136 -60.01921 33089 ft 518 kts 51°
2026-05-06 14:38 24.49686 -59.95737 33084 ft 518 kts 51°
2026-05-06 14:38 24.54194 -59.89615 33091 ft 518 kts 51°
2026-05-06 14:39 24.58749 -59.83432 33100 ft 518 kts 51°
2026-05-06 14:39 24.63297 -59.77266 33094 ft 519 kts 51°
2026-05-06 14:40 24.67838 -59.71109 33084 ft 519 kts 51°
2026-05-06 14:40 24.72379 -59.64957 33083 ft 519 kts 51°
2026-05-06 14:41 24.76934 -59.58786 33099 ft 520 kts 51°
2026-05-06 14:41 24.81482 -59.52630 33090 ft 520 kts 51°
2026-05-06 14:42 24.86060 -59.46438 33085 ft 520 kts 51°
2026-05-06 14:42 24.90617 -59.40277 33092 ft 520 kts 51°
2026-05-06 14:43 24.95211 -59.34072 33089 ft 520 kts 51°
2026-05-06 14:43 24.99771 -59.27913 33086 ft 521 kts 51°
2026-05-06 14:44 25.04349 -59.21731 33098 ft 521 kts 51°
2026-05-06 14:45 25.11237 -59.12426 33095 ft 521 kts 51°
2026-05-06 14:45 25.15812 -59.06249 33092 ft 521 kts 51°
2026-05-06 14:46 25.20392 -59.00065 33091 ft 521 kts 51°
2026-05-06 14:46 25.24968 -58.93887 33091 ft 521 kts 51°
2026-05-06 14:47 25.28796 -58.88718 33090 ft 521 kts 51°
2026-05-06 14:47 25.33380 -58.82529 33091 ft 521 kts 51°
2026-05-06 14:48 25.37973 -58.76324 33089 ft 521 kts 51°
2026-05-06 14:48 25.42582 -58.70098 33091 ft 521 kts 51°
2026-05-06 14:49 25.47157 -58.63919 33091 ft 522 kts 51°
2026-05-06 14:49 25.51771 -58.57688 33090 ft 522 kts 51°
2026-05-06 14:50 25.56374 -58.51472 33092 ft 522 kts 51°
2026-05-06 14:50 25.60985 -58.45243 33089 ft 522 kts 51°
2026-05-06 14:51 25.65588 -58.39024 33090 ft 522 kts 51°
2026-05-06 14:51 25.70184 -58.32814 33091 ft 523 kts 51°
2026-05-06 14:52 25.74798 -58.26580 33090 ft 523 kts 51°
2026-05-06 14:52 25.79404 -58.20354 33092 ft 523 kts 51°
2026-05-06 14:53 25.84041 -58.14086 33093 ft 523 kts 51°
2026-05-06 14:53 25.88661 -58.07841 33091 ft 523 kts 51°
2026-05-06 14:54 25.93281 -58.01594 33089 ft 524 kts 51°
2026-05-06 14:54 25.97891 -57.95361 33092 ft 524 kts 51°
2026-05-06 14:55 26.02517 -57.89105 33090 ft 524 kts 51°
2026-05-06 14:55 26.07169 -57.82813 33091 ft 524 kts 51°
2026-05-06 14:56 26.11773 -57.76586 33092 ft 524 kts 51°
2026-05-06 14:56 26.16443 -57.70270 33091 ft 525 kts 51°
2026-05-06 14:57 26.21049 -57.64039 33091 ft 525 kts 51°
2026-05-06 14:57 26.25686 -57.57767 33090 ft 525 kts 51°
2026-05-06 14:58 26.30350 -57.51460 33089 ft 525 kts 51°
2026-05-06 14:58 26.34995 -57.45176 33092 ft 525 kts 51°
2026-05-06 14:59 26.39635 -57.38899 33093 ft 525 kts 51°
2026-05-06 14:59 26.44294 -57.32596 33092 ft 525 kts 51°
2026-05-06 15:00 26.48949 -57.26298 33090 ft 526 kts 51°
2026-05-06 15:00 26.53587 -57.20025 33090 ft 526 kts 51°
2026-05-06 15:01 26.58237 -57.13733 33091 ft 526 kts 51°
2026-05-06 15:01 26.62889 -57.07436 33090 ft 526 kts 51°
2026-05-06 15:02 26.67570 -57.01098 33093 ft 526 kts 51°
2026-05-06 15:02 26.72221 -56.94801 33088 ft 526 kts 51°
2026-05-06 15:03 26.76879 -56.88493 33090 ft 526 kts 51°
2026-05-06 15:03 26.81533 -56.82192 33092 ft 526 kts 51°
2026-05-06 15:04 26.86219 -56.75844 33090 ft 526 kts 51°
2026-05-06 15:04 26.90869 -56.69546 33090 ft 527 kts 51°
2026-05-06 15:05 26.95547 -56.63207 33087 ft 527 kts 51°
2026-05-06 15:05 27.00207 -56.56894 33094 ft 527 kts 51°
2026-05-06 15:06 27.04879 -56.50559 33101 ft 527 kts 51°
2026-05-06 15:06 27.09548 -56.44228 33090 ft 527 kts 51°
2026-05-06 15:07 27.14212 -56.37899 33093 ft 527 kts 51°
2026-05-06 15:07 27.18887 -56.31555 33091 ft 527 kts 51°
2026-05-06 15:08 27.23559 -56.25213 33097 ft 527 kts 51°
2026-05-06 15:08 27.28233 -56.18860 33095 ft 527 kts 51°
2026-05-06 15:09 27.32916 -56.12494 33098 ft 527 kts 51°
2026-05-06 15:09 27.37566 -56.06168 33097 ft 527 kts 51°
2026-05-06 15:10 27.42234 -55.99815 33095 ft 527 kts 51°
2026-05-06 15:10 27.46891 -55.93471 33096 ft 526 kts 51°
2026-05-06 15:11 27.51568 -55.87094 33100 ft 526 kts 51°
2026-05-06 15:11 27.56217 -55.80753 33097 ft 526 kts 51°
2026-05-06 15:12 27.60876 -55.74391 33098 ft 526 kts 51°
2026-05-06 15:12 27.65538 -55.68022 33103 ft 526 kts 51°
2026-05-06 15:13 27.70206 -55.61641 33098 ft 526 kts 51°
2026-05-06 15:13 27.74836 -55.55305 33098 ft 525 kts 51°
2026-05-06 15:14 27.79504 -55.48910 33099 ft 525 kts 51°
2026-05-06 15:14 27.84138 -55.42557 33098 ft 525 kts 51°
2026-05-06 15:15 27.88776 -55.36192 33099 ft 525 kts 51°
2026-05-06 15:15 27.93413 -55.29823 33101 ft 525 kts 51°
2026-05-06 15:16 27.98048 -55.23450 33103 ft 525 kts 51°
2026-05-06 15:16 28.02699 -55.17047 33101 ft 525 kts 51°
2026-05-06 15:17 28.07324 -55.10673 33102 ft 524 kts 51°
2026-05-06 15:17 28.11920 -55.04334 33102 ft 524 kts 51°
2026-05-06 15:18 28.16566 -54.97923 33101 ft 524 kts 51°
2026-05-06 15:18 28.21177 -54.91554 33101 ft 524 kts 51°
2026-05-06 15:19 28.25797 -54.85165 33101 ft 524 kts 51°
2026-05-06 15:19 28.30418 -54.78768 33102 ft 523 kts 51°
2026-05-06 15:20 28.35030 -54.72382 33101 ft 523 kts 51°
2026-05-06 15:20 28.39626 -54.66017 33105 ft 523 kts 51°
2026-05-06 15:21 28.44242 -54.59619 33103 ft 523 kts 51°
2026-05-06 15:21 28.48874 -54.53192 33101 ft 523 kts 51°
2026-05-06 15:22 28.53483 -54.46795 33101 ft 523 kts 51°
2026-05-06 15:22 28.58099 -54.40389 33103 ft 523 kts 51°
2026-05-06 15:23 28.62685 -54.34019 33109 ft 523 kts 51°
2026-05-06 15:23 28.67296 -54.27606 33107 ft 523 kts 51°
2026-05-06 15:24 28.71909 -54.21186 33110 ft 523 kts 51°
2026-05-06 15:24 28.76514 -54.14776 33106 ft 523 kts 51°
2026-05-06 15:25 28.81142 -54.08329 33109 ft 523 kts 51°
2026-05-06 15:25 28.85744 -54.01913 33108 ft 523 kts 51°
2026-05-06 15:26 28.90320 -53.95526 33111 ft 523 kts 51°
2026-05-06 15:26 28.94943 -53.89071 33108 ft 523 kts 51°
2026-05-06 15:27 28.99533 -53.82659 33112 ft 523 kts 51°
2026-05-06 15:27 29.04159 -53.76191 33113 ft 523 kts 51°
2026-05-06 15:28 29.08762 -53.69750 33112 ft 523 kts 51°
2026-05-06 15:28 29.13357 -53.63313 33111 ft 523 kts 51°
2026-05-06 15:29 29.17954 -53.56869 33111 ft 523 kts 51°
2026-05-06 15:29 29.22544 -53.50429 33114 ft 523 kts 51°
2026-05-06 15:30 29.27119 -53.44004 33114 ft 523 kts 51°
2026-05-06 15:30 29.31712 -53.37549 33111 ft 523 kts 51°
2026-05-06 15:31 29.36303 -53.31091 33112 ft 522 kts 51°
2026-05-06 15:31 29.40897 -53.24624 33115 ft 522 kts 51°
2026-05-06 15:32 29.47033 -53.15980 33119 ft 522 kts 51°
2026-05-06 15:32 29.51609 -53.09523 33120 ft 522 kts 51°
2026-05-06 15:33 29.56188 -53.03054 33119 ft 522 kts 51°
2026-05-06 15:33 29.60761 -52.96589 33118 ft 522 kts 51°
2026-05-06 15:34 29.65343 -52.90109 33118 ft 522 kts 51°
2026-05-06 15:34 29.69921 -52.83621 33118 ft 522 kts 51°
2026-05-06 15:35 29.74494 -52.77135 33125 ft 522 kts 51°
2026-05-06 15:35 29.79054 -52.70660 33113 ft 522 kts 51°
2026-05-06 15:36 29.83639 -52.64142 33119 ft 522 kts 51°
2026-05-06 15:36 29.88178 -52.57684 33117 ft 522 kts 51°
2026-05-06 15:37 29.92741 -52.51184 33113 ft 522 kts 51°
2026-05-06 15:37 29.97296 -52.44690 33117 ft 521 kts 51°
2026-05-06 15:38 30.01861 -52.38171 33124 ft 521 kts 51°
2026-05-06 15:38 30.06422 -52.31653 33118 ft 521 kts 51°
2026-05-06 15:39 30.10970 -52.25148 33120 ft 521 kts 51°
2026-05-06 15:39 30.15503 -52.18656 33119 ft 521 kts 51°
2026-05-06 15:40 30.20068 -52.12114 33121 ft 521 kts 51°
2026-05-06 15:40 30.24615 -52.05586 33125 ft 521 kts 51°
2026-05-06 15:41 30.29165 -51.99047 33121 ft 521 kts 51°
2026-05-06 15:41 30.33677 -51.92554 33125 ft 521 kts 51°
2026-05-06 15:42 30.38226 -51.86002 33128 ft 520 kts 51°
2026-05-06 15:42 30.42745 -51.79485 33123 ft 520 kts 51°
2026-05-06 15:43 30.47278 -51.72939 33127 ft 520 kts 51°
2026-05-06 15:43 30.51793 -51.66412 33129 ft 520 kts 51°
2026-05-06 15:44 30.56345 -51.59821 33130 ft 520 kts 51°
2026-05-06 15:44 30.60835 -51.53310 33129 ft 520 kts 51°
2026-05-06 15:45 30.65352 -51.46754 33128 ft 520 kts 51°
2026-05-06 15:45 30.69856 -51.40208 33130 ft 520 kts 51°
2026-05-06 15:46 30.74394 -51.33603 33129 ft 520 kts 51°
2026-05-06 15:46 30.78890 -51.27047 33125 ft 520 kts 51°
2026-05-06 15:47 30.83399 -51.20467 33132 ft 520 kts 51°
2026-05-06 15:47 30.87898 -51.13889 33131 ft 520 kts 51°
2026-05-06 15:48 30.92406 -51.07286 33133 ft 520 kts 51°
2026-05-06 15:48 30.96885 -51.00716 33141 ft 520 kts 51°
2026-05-06 15:49 31.01374 -50.94119 33135 ft 520 kts 51°
2026-05-06 15:49 31.05854 -50.87525 33135 ft 519 kts 51°
2026-05-06 15:50 31.10339 -50.80911 33134 ft 519 kts 51°
2026-05-06 15:50 31.14841 -50.74261 33141 ft 519 kts 51°
2026-05-06 15:51 31.19303 -50.67657 33145 ft 519 kts 51°
2026-05-06 15:51 31.23769 -50.61039 33140 ft 519 kts 51°
2026-05-06 15:52 31.28237 -50.54408 33142 ft 519 kts 51°
2026-05-06 15:52 31.32685 -50.47793 33143 ft 519 kts 51°
2026-05-06 15:53 31.37147 -50.41149 33150 ft 519 kts 51°
2026-05-06 15:53 31.41601 -50.34504 33141 ft 519 kts 51°
2026-05-06 15:54 31.46054 -50.27851 33145 ft 519 kts 51°
2026-05-06 15:54 31.50502 -50.21195 33147 ft 518 kts 51°
2026-05-06 15:55 31.54952 -50.14525 33147 ft 518 kts 51°
2026-05-06 15:55 31.59394 -50.07858 33150 ft 518 kts 51°
2026-05-06 15:56 31.63818 -50.01205 33151 ft 518 kts 51°
2026-05-06 15:56 31.68241 -49.94537 33147 ft 518 kts 51°
2026-05-06 15:57 31.72650 -49.87881 33146 ft 518 kts 51°
2026-05-06 15:57 31.77077 -49.81181 33152 ft 518 kts 51°
2026-05-06 15:58 31.81492 -49.74487 33151 ft 518 kts 51°
2026-05-06 15:58 31.85903 -49.67788 33156 ft 517 kts 51°
2026-05-06 15:59 31.90284 -49.61126 33156 ft 517 kts 51°
2026-05-06 15:59 31.94706 -49.54390 33154 ft 517 kts 51°
2026-05-06 16:00 31.99093 -49.47698 33154 ft 517 kts 51°
2026-05-06 16:00 32.03475 -49.41000 33159 ft 517 kts 51°
2026-05-06 16:01 32.07870 -49.34276 33157 ft 517 kts 51°
2026-05-06 16:01 32.12252 -49.27564 33161 ft 516 kts 51°
2026-05-06 16:02 32.16605 -49.20886 33157 ft 516 kts 51°
2026-05-06 16:02 32.21007 -49.14125 33158 ft 516 kts 51°
2026-05-06 16:03 32.25368 -49.07420 33161 ft 516 kts 51°
2026-05-06 16:03 32.29729 -49.00703 33165 ft 516 kts 51°
2026-05-06 16:04 32.34097 -48.93971 33167 ft 516 kts 51°
2026-05-06 16:04 32.38450 -48.87261 33163 ft 516 kts 51°
2026-05-06 16:05 32.42787 -48.80508 33165 ft 515 kts 53°
2026-05-06 16:05 32.47085 -48.73682 33156 ft 514 kts 49°
2026-05-06 16:06 32.51266 -48.66799 33163 ft 515 kts 54°
2026-05-06 16:06 32.55582 -48.60075 33168 ft 513 kts 50°
2026-05-06 16:07 32.59901 -48.53349 33174 ft 514 kts 51°
2026-05-06 16:07 32.64248 -48.46579 33168 ft 515 kts 51°
2026-05-06 16:08 32.68582 -48.39810 33171 ft 516 kts 51°
2026-05-06 16:08 32.72940 -48.32994 33173 ft 517 kts 51°
2026-05-06 16:09 32.77280 -48.26182 33172 ft 517 kts 51°
2026-05-06 16:09 32.81609 -48.19364 33173 ft 518 kts 51°
2026-05-06 16:10 32.85933 -48.12538 33173 ft 518 kts 51°
2026-05-06 16:10 32.90258 -48.05686 33171 ft 518 kts 51°
2026-05-06 16:11 32.94580 -47.98811 33174 ft 518 kts 51°
2026-05-06 16:11 32.98872 -47.91956 33177 ft 518 kts 51°
2026-05-06 16:12 33.03187 -47.85042 33182 ft 518 kts 51°
2026-05-06 16:12 33.07445 -47.78200 33179 ft 517 kts 51°
2026-05-06 16:13 33.11748 -47.71265 33180 ft 517 kts 51°
2026-05-06 16:13 33.16022 -47.64364 33183 ft 517 kts 51°
2026-05-06 16:14 33.20282 -47.57469 33185 ft 516 kts 51°
2026-05-06 16:14 33.24538 -47.50567 33182 ft 516 kts 51°
2026-05-06 16:15 33.28778 -47.43673 33184 ft 516 kts 51°
2026-05-06 16:15 33.33031 -47.36744 33188 ft 515 kts 51°
2026-05-06 16:16 33.37244 -47.29870 33186 ft 515 kts 51°
2026-05-06 16:16 33.41470 -47.22962 33187 ft 515 kts 51°
2026-05-06 16:17 33.45699 -47.16034 33184 ft 515 kts 51°
2026-05-06 16:17 33.49927 -47.09098 33183 ft 515 kts 51°
2026-05-06 16:18 33.54141 -47.02168 33193 ft 515 kts 51°
2026-05-06 16:18 33.57661 -46.96371 33194 ft 515 kts 51°
2026-05-06 16:19 33.61851 -46.89456 33189 ft 515 kts 51°
2026-05-06 16:19 33.66059 -46.82495 33191 ft 515 kts 51°
2026-05-06 16:20 33.70272 -46.75510 33194 ft 516 kts 51°
2026-05-06 16:20 33.74468 -46.68541 33193 ft 516 kts 51°
2026-05-06 16:21 33.78672 -46.61541 33198 ft 516 kts 51°
2026-05-06 16:21 33.82868 -46.54543 33197 ft 516 kts 51°
2026-05-06 16:22 33.87079 -46.47515 33197 ft 517 kts 51°
2026-05-06 16:22 33.91288 -46.40482 33199 ft 517 kts 51°
2026-05-06 16:23 33.95484 -46.33461 33198 ft 516 kts 51°
2026-05-06 16:23 33.99659 -46.26479 33200 ft 516 kts 51°
2026-05-06 16:24 34.03875 -46.19420 33203 ft 516 kts 51°
2026-05-06 16:24 34.08070 -46.12384 33200 ft 516 kts 51°
2026-05-06 16:25 34.12246 -46.05382 33207 ft 516 kts 51°
2026-05-06 16:25 34.16415 -45.98383 33211 ft 516 kts 51°
2026-05-06 16:26 34.20605 -45.91337 33207 ft 516 kts 51°
2026-05-06 16:26 34.24791 -45.84288 33210 ft 515 kts 51°
2026-05-06 16:27 34.28964 -45.77252 33211 ft 515 kts 51°
2026-05-06 16:27 34.33134 -45.70209 33212 ft 515 kts 51°
2026-05-06 16:28 34.37306 -45.63156 33212 ft 515 kts 51°
2026-05-06 16:28 34.41471 -45.56110 33213 ft 514 kts 51°
2026-05-06 16:29 34.45623 -45.49082 33215 ft 514 kts 51°
2026-05-06 16:29 34.49793 -45.42022 33216 ft 514 kts 51°
2026-05-06 16:30 34.53258 -45.36150 33220 ft 513 kts 51°
2026-05-06 16:30 34.58100 -45.27945 33218 ft 513 kts 51°
2026-05-06 16:31 34.62244 -45.20919 33224 ft 513 kts 51°
2026-05-06 16:31 34.66419 -45.13841 33224 ft 513 kts 51°
2026-05-06 16:32 34.70575 -45.06791 33226 ft 512 kts 51°
2026-05-06 16:32 34.74693 -44.99795 33270 ft 512 kts 51°
2026-05-06 16:33 34.78850 -44.92704 33237 ft 512 kts 51°
2026-05-06 16:34 34.85039 -44.82129 33229 ft 511 kts 51°
2026-05-06 16:34 34.89160 -44.75079 33232 ft 510 kts 51°
2026-05-06 16:35 34.93259 -44.68056 33231 ft 510 kts 51°
2026-05-06 16:35 34.97336 -44.61056 33233 ft 509 kts 51°
2026-05-06 16:36 35.01447 -44.53985 33238 ft 509 kts 51°
2026-05-06 16:36 35.05545 -44.46925 33239 ft 509 kts 51°
2026-05-06 16:37 35.09633 -44.39866 33242 ft 510 kts 51°
2026-05-06 16:37 35.13720 -44.32787 33242 ft 510 kts 51°
2026-05-06 16:38 35.17804 -44.25698 33245 ft 511 kts 51°
2026-05-06 16:38 35.21885 -44.18590 33245 ft 511 kts 51°
2026-05-06 16:39 35.25950 -44.11489 33246 ft 511 kts 51°
2026-05-06 16:39 35.30039 -44.04327 33246 ft 511 kts 51°
2026-05-06 16:40 35.34113 -43.97166 33251 ft 511 kts 51°
2026-05-06 16:40 35.38163 -43.90031 33249 ft 511 kts 51°
2026-05-06 16:41 35.42222 -43.82863 33254 ft 511 kts 51°
2026-05-06 16:41 35.46276 -43.75683 33249 ft 511 kts 51°
2026-05-06 16:42 35.50293 -43.68544 33252 ft 511 kts 51°
2026-05-06 16:42 35.54334 -43.61347 33255 ft 510 kts 51°
2026-05-06 16:43 35.58366 -43.54143 33259 ft 510 kts 51°
2026-05-06 16:43 35.62371 -43.46970 33260 ft 510 kts 51°
2026-05-06 16:44 35.66351 -43.39821 33262 ft 509 kts 51°
2026-05-06 16:44 35.70359 -43.32606 33265 ft 509 kts 51°
2026-05-06 16:45 35.74357 -43.25394 33265 ft 509 kts 51°
2026-05-06 16:45 35.78338 -43.18193 33263 ft 508 kts 51°
2026-05-06 16:46 35.82279 -43.11047 33267 ft 508 kts 51°
2026-05-06 16:46 35.86255 -43.03820 33263 ft 507 kts 51°
2026-05-06 16:47 35.90204 -42.96621 33271 ft 507 kts 51°
2026-05-06 16:47 35.94167 -42.89383 33267 ft 507 kts 51°
2026-05-06 16:48 35.98098 -42.82182 33266 ft 507 kts 51°
2026-05-06 16:48 36.02010 -42.74995 33265 ft 507 kts 51°
2026-05-06 16:49 36.05954 -42.67721 33271 ft 507 kts 51°
2026-05-06 16:49 36.09842 -42.60517 33269 ft 507 kts 51°
2026-05-06 16:50 36.13755 -42.53239 33273 ft 508 kts 51°
2026-05-06 16:50 36.17669 -42.45921 33271 ft 508 kts 51°
2026-05-06 16:51 36.21537 -42.38652 33273 ft 509 kts 51°
2026-05-06 16:51 36.25425 -42.31301 33270 ft 510 kts 51°
2026-05-06 16:52 36.29311 -42.23918 33274 ft 510 kts 51°
2026-05-06 16:52 36.33169 -42.16542 33279 ft 511 kts 51°
2026-05-06 16:53 36.37017 -42.09133 33278 ft 512 kts 51°
2026-05-06 16:53 36.40857 -42.01695 33276 ft 512 kts 51°
2026-05-06 16:54 36.44694 -41.94239 33277 ft 512 kts 51°
2026-05-06 16:54 36.48515 -41.86781 33276 ft 512 kts 51°
2026-05-06 16:55 36.52338 -41.79287 33275 ft 512 kts 51°
2026-05-06 16:55 36.56133 -41.71816 33280 ft 512 kts 51°
2026-05-06 16:56 36.59934 -41.64299 33280 ft 512 kts 51°
2026-05-06 16:56 36.63727 -41.56759 33279 ft 512 kts 51°
2026-05-06 16:57 36.67476 -41.49268 33276 ft 512 kts 51°
2026-05-06 16:57 36.71250 -41.41683 33283 ft 512 kts 51°
2026-05-06 16:58 36.74975 -41.34158 33281 ft 512 kts 51°
2026-05-06 16:58 36.78702 -41.26598 33277 ft 512 kts 51°
2026-05-06 16:59 36.82424 -41.19014 33279 ft 512 kts 51°
2026-05-06 16:59 36.86135 -41.11424 33279 ft 512 kts 51°
2026-05-06 17:00 36.89852 -41.03801 33279 ft 512 kts 51°
2026-05-06 17:00 36.93532 -40.96238 33278 ft 512 kts 51°
2026-05-06 17:01 36.97232 -40.88615 33283 ft 512 kts 51°
2026-05-06 17:01 37.00306 -40.82270 33282 ft 512 kts 51°
2026-05-06 17:02 37.04004 -40.74623 33278 ft 513 kts 51°
2026-05-06 17:02 37.07681 -40.67000 33282 ft 513 kts 51°
2026-05-06 17:03 37.11376 -40.59322 33284 ft 513 kts 51°
2026-05-06 17:03 37.15065 -40.51642 33279 ft 514 kts 51°
2026-05-06 17:04 37.18751 -40.43953 33278 ft 514 kts 51°
2026-05-06 17:04 37.22432 -40.36254 33276 ft 515 kts 51°
2026-05-06 17:05 37.26088 -40.28585 33276 ft 515 kts 51°
2026-05-06 17:05 37.29765 -40.20837 33280 ft 516 kts 51°
2026-05-06 17:06 37.33442 -40.13071 33284 ft 516 kts 51°
2026-05-06 17:06 37.37092 -40.05337 33282 ft 517 kts 51°
2026-05-06 17:07 37.40758 -39.97533 33273 ft 517 kts 51°
2026-05-06 17:07 37.44386 -39.89761 33284 ft 517 kts 51°
2026-05-06 17:08 37.48023 -39.81936 33280 ft 517 kts 51°
2026-05-06 17:08 37.51652 -39.74083 33282 ft 518 kts 51°
2026-05-06 17:09 37.55265 -39.66223 33280 ft 518 kts 51°
2026-05-06 17:09 37.58865 -39.58367 33275 ft 518 kts 51°
2026-05-06 17:10 37.62459 -39.50506 33279 ft 518 kts 51°
2026-05-06 17:10 37.66057 -39.42613 33270 ft 518 kts 51°
2026-05-06 17:11 37.69646 -39.34731 33274 ft 518 kts 51°
2026-05-06 17:11 37.73243 -39.26830 33276 ft 519 kts 51°
2026-05-06 17:12 37.76853 -39.18899 33272 ft 519 kts 51°
2026-05-06 17:12 37.80444 -39.11014 33272 ft 519 kts 51°
2026-05-06 17:13 37.84055 -39.03115 32972 ft 519 kts 56°
2026-05-06 17:13 37.85982 -38.99332 33009 ft 508 kts 49°
2026-05-06 17:13 37.88009 -38.95712 33111 ft 506 kts 54°
2026-05-06 17:14 37.91749 -38.88150 33221 ft 507 kts 53°
2026-05-06 17:14 37.95694 -38.80792 33268 ft 506 kts 50°
2026-05-06 17:15 37.99685 -38.73361 33267 ft 510 kts 51°
2026-05-06 17:15 38.03677 -38.65940 33260 ft 512 kts 51°
2026-05-06 17:16 38.07689 -38.58443 33266 ft 512 kts 51°
2026-05-06 17:16 38.11686 -38.50960 33260 ft 512 kts 51°
2026-05-06 17:17 38.15660 -38.43509 33257 ft 511 kts 51°
2026-05-06 17:17 38.19634 -38.36033 33253 ft 511 kts 51°
2026-05-06 17:18 38.23623 -38.28511 33264 ft 511 kts 51°
2026-05-06 17:18 38.27560 -38.21060 33250 ft 510 kts 51°
2026-05-06 17:19 38.31525 -38.13526 33258 ft 510 kts 51°
2026-05-06 17:19 38.35469 -38.05999 33257 ft 511 kts 51°
2026-05-06 17:20 38.39385 -37.98492 33261 ft 511 kts 51°
2026-05-06 17:20 38.43321 -37.90920 33174 ft 512 kts 51°
2026-05-06 17:21 38.47230 -37.83368 33249 ft 509 kts 51°
2026-05-06 17:21 38.51122 -37.75809 33261 ft 508 kts 51°
2026-05-06 17:22 38.55001 -37.68247 33259 ft 508 kts 51°
2026-05-06 17:22 38.58849 -37.60710 33248 ft 509 kts 51°
2026-05-06 17:23 38.62716 -37.53100 33252 ft 510 kts 51°
2026-05-06 17:23 38.66591 -37.45445 33247 ft 511 kts 51°
2026-05-06 17:24 38.70443 -37.37804 33254 ft 513 kts 51°
2026-05-06 17:24 38.74297 -37.30120 33246 ft 514 kts 51°
2026-05-06 17:25 38.78165 -37.22385 33249 ft 515 kts 51°
2026-05-06 17:25 38.81997 -37.14686 33243 ft 515 kts 51°
2026-05-06 17:26 38.85857 -37.06900 33247 ft 515 kts 51°
2026-05-06 17:26 38.89679 -36.99157 33239 ft 515 kts 51°
2026-05-06 17:27 38.93491 -36.91402 33239 ft 514 kts 51°
2026-05-06 17:27 38.97302 -36.83619 33233 ft 514 kts 51°
2026-05-06 17:28 39.01106 -36.75820 33237 ft 513 kts 51°
2026-05-06 17:28 39.04876 -36.68064 33228 ft 513 kts 51°
2026-05-06 17:29 39.08651 -36.60270 33229 ft 513 kts 51°
2026-05-06 17:29 39.10540 -36.56329 33548 ft 516 kts 47°
2026-05-06 17:29 39.12283 -36.52229 33414 ft 527 kts 50°
2026-05-06 17:30 39.15783 -36.43970 33294 ft 536 kts 51°
2026-05-06 17:30 39.19347 -36.35556 33218 ft 537 kts 51°
2026-05-06 17:31 39.22923 -36.27128 33220 ft 534 kts 51°
2026-05-06 17:31 39.26482 -36.18752 33214 ft 532 kts 51°
2026-05-06 17:32 39.30036 -36.10401 33202 ft 529 kts 51°
2026-05-06 17:32 39.33582 -36.02080 33208 ft 526 kts 51°
2026-05-06 17:33 39.37120 -35.93833 33210 ft 523 kts 51°
2026-05-06 17:33 39.40664 -35.85637 33213 ft 520 kts 51°
2026-05-06 17:34 39.44183 -35.77556 33214 ft 517 kts 51°
2026-05-06 17:34 39.47727 -35.69471 33198 ft 514 kts 51°
2026-05-06 17:35 39.51260 -35.61449 33193 ft 512 kts 51°
2026-05-06 17:35 39.54802 -35.53442 33193 ft 510 kts 51°
2026-05-06 17:36 39.60086 -35.41552 33188 ft 507 kts 51°
2026-05-06 17:36 39.63607 -35.33667 33190 ft 506 kts 51°
2026-05-06 17:37 39.67148 -35.25762 33187 ft 505 kts 51°
2026-05-06 17:37 39.70678 -35.17908 33186 ft 504 kts 51°
2026-05-06 17:38 39.74215 -35.10058 33188 ft 504 kts 51°
2026-05-06 17:38 39.77763 -35.02205 33185 ft 504 kts 51°
2026-05-06 17:39 39.81312 -34.94370 33181 ft 503 kts 51°
2026-05-06 17:39 39.84881 -34.86525 33171 ft 503 kts 51°
2026-05-06 17:40 39.88463 -34.78680 33180 ft 502 kts 51°
2026-05-06 17:40 39.92015 -34.70926 33179 ft 501 kts 51°
2026-05-06 17:41 39.95597 -34.63125 33170 ft 499 kts 51°
2026-05-06 17:41 39.98567 -34.56673 33169 ft 498 kts 51°
2026-05-06 17:42 40.02132 -34.48938 33164 ft 497 kts 51°
2026-05-06 17:42 40.06282 -34.39962 33157 ft 495 kts 51°
2026-05-06 17:43 40.09273 -34.33513 33158 ft 495 kts 51°
2026-05-06 17:43 40.12842 -34.25846 33152 ft 494 kts 51°
2026-05-06 17:44 40.16394 -34.18239 33151 ft 493 kts 51°
2026-05-06 17:44 40.19975 -34.10601 33151 ft 492 kts 51°
2026-05-06 17:45 40.23565 -34.02971 33148 ft 491 kts 51°
2026-05-06 17:45 40.27165 -33.95356 33147 ft 491 kts 51°
2026-05-06 17:46 40.30760 -33.87774 33143 ft 491 kts 51°
2026-05-06 17:46 40.34378 -33.80173 33139 ft 491 kts 51°
2026-05-06 17:47 40.37977 -33.72637 33140 ft 490 kts 51°
2026-05-06 17:47 40.41615 -33.65041 33131 ft 491 kts 51°
2026-05-06 17:48 40.45263 -33.57454 33130 ft 491 kts 51°
2026-05-06 17:48 40.48912 -33.49894 33128 ft 491 kts 51°
2026-05-06 17:49 40.52570 -33.42337 33130 ft 490 kts 51°
2026-05-06 17:49 40.56232 -33.34814 33121 ft 490 kts 51°
2026-05-06 17:50 40.59939 -33.27247 33126 ft 490 kts 51°
2026-05-06 17:50 40.63647 -33.19731 33118 ft 490 kts 51°
2026-05-06 17:51 40.67370 -33.12232 33116 ft 490 kts 51°
2026-05-06 17:51 40.71113 -33.04736 33115 ft 490 kts 51°
2026-05-06 17:52 40.74881 -32.97233 33110 ft 490 kts 51°
2026-05-06 17:52 40.78649 -32.89773 33100 ft 489 kts 51°
2026-05-06 17:53 40.82430 -32.82321 33100 ft 489 kts 51°
2026-05-06 17:53 40.86250 -32.74829 33101 ft 489 kts 51°
2026-05-06 17:54 40.90055 -32.67398 33098 ft 489 kts 51°
2026-05-06 17:54 40.93881 -32.59959 33095 ft 489 kts 51°
2026-05-06 17:55 40.97716 -32.52540 33098 ft 489 kts 51°
2026-05-06 17:55 41.01561 -32.45142 33091 ft 489 kts 51°
2026-05-06 17:56 41.05422 -32.37756 33089 ft 489 kts 51°
2026-05-06 17:56 41.09316 -32.30343 33081 ft 489 kts 51°
2026-05-06 17:57 41.13203 -32.22979 33078 ft 489 kts 51°
2026-05-06 17:57 41.17110 -32.15609 33077 ft 489 kts 51°
2026-05-06 17:58 41.21041 -32.08226 33076 ft 490 kts 51°
2026-05-06 17:58 41.24981 -32.00855 33074 ft 490 kts 51°
2026-05-06 17:59 41.28966 -31.93436 33067 ft 490 kts 51°
2026-05-06 17:59 41.32946 -31.86056 33062 ft 490 kts 51°
2026-05-06 18:00 41.36932 -31.78696 33062 ft 490 kts 51°
2026-05-06 18:00 41.40926 -31.71359 33058 ft 491 kts 51°
2026-05-06 18:01 41.44944 -31.64017 33059 ft 491 kts 51°
2026-05-06 18:01 41.48984 -31.56673 33054 ft 491 kts 51°
2026-05-06 18:02 41.53026 -31.49357 33048 ft 491 kts 51°
2026-05-06 18:02 41.57097 -31.42031 33044 ft 492 kts 51°
2026-05-06 18:03 41.61210 -31.34677 33044 ft 492 kts 51°
2026-05-06 18:03 41.65309 -31.27385 33042 ft 493 kts 51°
2026-05-06 18:04 41.69442 -31.20072 33043 ft 493 kts 51°
2026-05-06 18:04 41.73611 -31.12734 33038 ft 494 kts 51°
2026-05-06 18:05 41.77773 -31.05440 33033 ft 495 kts 51°
2026-05-06 18:05 41.81964 -30.98133 33036 ft 496 kts 51°
2026-05-06 18:06 41.86189 -30.90793 33031 ft 497 kts 51°
2026-05-06 18:06 41.90421 -30.83461 33022 ft 498 kts 51°
2026-05-06 18:07 41.94669 -30.76121 33019 ft 498 kts 51°
2026-05-06 18:07 41.98920 -30.68789 33017 ft 498 kts 51°
2026-05-06 18:08 42.03176 -30.61467 33012 ft 498 kts 51°
2026-05-06 18:08 42.07472 -30.54088 33004 ft 499 kts 51°
2026-05-06 18:09 42.11746 -30.46754 32997 ft 499 kts 51°
2026-05-06 18:09 42.16029 -30.39411 33010 ft 499 kts 51°
2026-05-06 18:10 42.20329 -30.32048 33003 ft 499 kts 51°
2026-05-06 18:10 42.24627 -30.24701 32995 ft 499 kts 51°
2026-05-06 18:11 42.28939 -30.17327 32979 ft 499 kts 51°
2026-05-06 18:11 42.33226 -30.09993 32997 ft 499 kts 51°
2026-05-06 18:12 42.37532 -30.02622 32980 ft 500 kts 51°
2026-05-06 18:12 42.41839 -29.95246 32992 ft 500 kts 51°
2026-05-06 18:13 42.46147 -29.87857 32980 ft 500 kts 51°
2026-05-06 18:13 42.50445 -29.80470 32983 ft 500 kts 51°
2026-05-06 18:14 42.54773 -29.73022 32981 ft 501 kts 51°
2026-05-06 18:14 42.59091 -29.65580 32978 ft 501 kts 51°
2026-05-06 18:15 42.63388 -29.58171 32973 ft 501 kts 51°
2026-05-06 18:15 42.67689 -29.50748 32965 ft 501 kts 51°
2026-05-06 18:16 42.72003 -29.43297 32971 ft 502 kts 51°
2026-05-06 18:16 42.76331 -29.35822 32976 ft 502 kts 51°
2026-05-06 18:17 42.80643 -29.28376 32967 ft 502 kts 51°
2026-05-06 18:17 42.84976 -29.20896 32963 ft 502 kts 51°
2026-05-06 18:18 42.89316 -29.13405 32967 ft 502 kts 51°
2026-05-06 18:18 42.93648 -29.05924 32961 ft 503 kts 51°
2026-05-06 18:19 42.97959 -28.98474 32969 ft 503 kts 51°
2026-05-06 18:19 43.02320 -28.90937 32970 ft 504 kts 51°
2026-05-06 18:20 43.06652 -28.83447 32968 ft 504 kts 51°
2026-05-06 18:20 43.10991 -28.75939 32956 ft 504 kts 51°
2026-05-06 18:21 43.15359 -28.68375 32962 ft 504 kts 51°
2026-05-06 18:21 43.19716 -28.60825 32960 ft 505 kts 51°
2026-05-06 18:22 43.24061 -28.53293 32954 ft 505 kts 51°
2026-05-06 18:22 43.28448 -28.45683 32951 ft 506 kts 51°
2026-05-06 18:23 43.32811 -28.38113 32960 ft 506 kts 51°
2026-05-06 18:23 43.37163 -28.30553 32952 ft 506 kts 51°
2026-05-06 18:24 43.41532 -28.22955 32949 ft 506 kts 51°
2026-05-06 18:24 43.45892 -28.15363 32952 ft 507 kts 51°
2026-05-06 18:25 43.50247 -28.07769 32951 ft 507 kts 51°
2026-05-06 18:25 43.54608 -28.00155 32950 ft 507 kts 51°
2026-05-06 18:26 43.58999 -27.92478 32950 ft 508 kts 51°
2026-05-06 18:26 43.63369 -27.84826 32951 ft 508 kts 51°
2026-05-06 18:27 43.67727 -27.77187 32945 ft 508 kts 51°
2026-05-06 18:27 43.72110 -27.69488 32945 ft 509 kts 51°
2026-05-06 18:28 43.76480 -27.61798 32946 ft 509 kts 51°
2026-05-06 18:28 43.80858 -27.54076 32946 ft 510 kts 51°
2026-05-06 18:29 43.84492 -27.47658 32948 ft 510 kts 51°
2026-05-06 18:29 43.88870 -27.39912 32949 ft 510 kts 51°
2026-05-06 18:30 43.93243 -27.32163 32943 ft 510 kts 51°
2026-05-06 18:30 43.97612 -27.24407 32945 ft 511 kts 51°
2026-05-06 18:31 44.01972 -27.16652 32943 ft 511 kts 51°
2026-05-06 18:31 44.06364 -27.08825 32945 ft 511 kts 51°
2026-05-06 18:32 44.10735 -27.01023 32946 ft 511 kts 51°
2026-05-06 18:32 44.15101 -26.93218 32941 ft 511 kts 51°
2026-05-06 18:33 44.19455 -26.85424 32946 ft 511 kts 51°
2026-05-06 18:33 44.23812 -26.77609 32950 ft 511 kts 51°
2026-05-06 18:34 44.28177 -26.69772 32946 ft 511 kts 51°
2026-05-06 18:34 44.32527 -26.61948 32942 ft 511 kts 51°
2026-05-06 18:35 44.36904 -26.54065 32946 ft 511 kts 51°
2026-05-06 18:35 44.41251 -26.46221 32944 ft 511 kts 51°
2026-05-06 18:36 44.45582 -26.38391 32962 ft 511 kts 51°
2026-05-06 18:36 44.49941 -26.30505 32941 ft 512 kts 51°
2026-05-06 18:37 44.54313 -26.22575 32937 ft 512 kts 51°
2026-05-06 18:37 44.58661 -26.14676 32951 ft 511 kts 51°
2026-05-06 18:38 44.62992 -26.06794 32947 ft 511 kts 51°
2026-05-06 18:38 44.67328 -25.98884 32951 ft 511 kts 51°
2026-05-06 18:39 44.71640 -25.90999 32949 ft 511 kts 51°
2026-05-06 18:40 44.78126 -25.79093 32950 ft 511 kts 51°
2026-05-06 18:40 44.82436 -25.71159 32948 ft 511 kts 51°
2026-05-06 18:41 44.86766 -25.63161 32951 ft 511 kts 51°
2026-05-06 18:41 44.91054 -25.55211 32949 ft 511 kts 51°
2026-05-06 18:42 44.95340 -25.47241 32951 ft 511 kts 51°
2026-05-06 18:42 44.99652 -25.39201 32946 ft 511 kts 51°
2026-05-06 18:43 45.03932 -25.31195 32956 ft 511 kts 51°
2026-05-06 18:43 45.08213 -25.23168 32951 ft 511 kts 51°
2026-05-06 18:44 45.12477 -25.15150 32951 ft 511 kts 51°
2026-05-06 18:44 45.16749 -25.07095 32949 ft 511 kts 51°
2026-05-06 18:45 45.21019 -24.99021 32948 ft 511 kts 51°
2026-05-06 18:45 45.25274 -24.90954 32951 ft 511 kts 51°
2026-05-06 18:46 45.29521 -24.82874 32951 ft 511 kts 51°
2026-05-06 18:46 45.33764 -24.74782 32952 ft 510 kts 51°
2026-05-06 18:47 45.37996 -24.66686 32951 ft 510 kts 51°
2026-05-06 18:47 45.42220 -24.58583 32950 ft 510 kts 51°
2026-05-06 18:48 45.46444 -24.50452 32949 ft 510 kts 51°
2026-05-06 18:48 45.50632 -24.42367 32955 ft 509 kts 51°
2026-05-06 18:49 45.54830 -24.34232 32948 ft 509 kts 51°
2026-05-06 18:49 45.59026 -24.26080 32953 ft 509 kts 51°
2026-05-06 18:50 45.63202 -24.17944 32950 ft 509 kts 51°
2026-05-06 18:50 45.67403 -24.09739 32949 ft 508 kts 51°
2026-05-06 18:51 45.71560 -24.01600 32952 ft 508 kts 51°
2026-05-06 18:51 45.75728 -23.93419 32949 ft 508 kts 51°
2026-05-06 18:52 45.79879 -23.85258 32951 ft 508 kts 51°
2026-05-06 18:52 45.84023 -23.77096 32953 ft 507 kts 51°
2026-05-06 18:53 45.88175 -23.68896 32956 ft 507 kts 51°
2026-05-06 18:53 45.92310 -23.60706 32962 ft 507 kts 51°
2026-05-06 18:54 45.96438 -23.52510 32958 ft 507 kts 51°
2026-05-06 18:54 46.00580 -23.44275 32936 ft 508 kts 51°
2026-05-06 18:55 46.04702 -23.36061 32949 ft 506 kts 51°
2026-05-06 18:55 46.08803 -23.27870 32949 ft 505 kts 51°
2026-05-06 18:56 46.12908 -23.19651 32954 ft 504 kts 51°
2026-05-06 18:56 46.17008 -23.11431 32952 ft 503 kts 51°
2026-05-06 18:57 46.21064 -23.03280 32945 ft 502 kts 51°
2026-05-06 18:57 46.25134 -22.95086 32964 ft 501 kts 51°
2026-05-06 18:58 46.29188 -22.86905 32960 ft 501 kts 51°
2026-05-06 18:58 46.33239 -22.78717 32948 ft 500 kts 51°
2026-05-06 18:59 46.37287 -22.70530 32954 ft 500 kts 51°
2026-05-06 18:59 46.41342 -22.62321 32974 ft 499 kts 51°
2026-05-06 19:00 46.45369 -22.54153 32967 ft 499 kts 51°
2026-05-06 19:00 46.49401 -22.45964 32958 ft 499 kts 51°
2026-05-06 19:01 46.53442 -22.37756 32963 ft 498 kts 51°
2026-05-06 19:01 46.57457 -22.29586 32958 ft 498 kts 51°
2026-05-06 19:02 46.61473 -22.21400 32963 ft 498 kts 51°
2026-05-06 19:02 46.65492 -22.13192 32959 ft 497 kts 51°
2026-05-06 19:03 46.69505 -22.04976 32960 ft 496 kts 51°
2026-05-06 19:03 46.73505 -21.96779 32958 ft 496 kts 51°
2026-05-06 19:04 46.77488 -21.88596 32963 ft 495 kts 51°
2026-05-06 19:04 46.81465 -21.80407 32963 ft 495 kts 51°
2026-05-06 19:05 46.85452 -21.72180 32958 ft 494 kts 51°
2026-05-06 19:05 46.89403 -21.63996 32967 ft 494 kts 51°
2026-05-06 19:06 46.93362 -21.55780 32970 ft 493 kts 51°
2026-05-06 19:06 46.97298 -21.47601 32965 ft 493 kts 51°
2026-05-06 19:07 47.01241 -21.39388 32962 ft 492 kts 51°
2026-05-06 19:07 47.05195 -21.31134 32959 ft 492 kts 51°
2026-05-06 19:08 47.09096 -21.22959 32959 ft 491 kts 51°
2026-05-06 19:08 47.12997 -21.14761 32962 ft 491 kts 51°
2026-05-06 19:09 47.16892 -21.06544 32961 ft 490 kts 51°
2026-05-06 19:09 47.20802 -20.98273 32963 ft 490 kts 51°
2026-05-06 19:10 47.24682 -20.90039 32964 ft 490 kts 51°
2026-05-06 19:10 47.28553 -20.81791 32963 ft 489 kts 51°
2026-05-06 19:11 47.32393 -20.73573 32962 ft 489 kts 51°
2026-05-06 19:11 47.36255 -20.65280 32965 ft 489 kts 51°
2026-05-06 19:12 47.40102 -20.56995 32960 ft 489 kts 51°
2026-05-06 19:12 47.43942 -20.48699 32960 ft 489 kts 51°
2026-05-06 19:13 47.47752 -20.40437 32957 ft 489 kts 51°
2026-05-06 19:13 47.51573 -20.32118 32962 ft 489 kts 51°
2026-05-06 19:14 47.55388 -20.23789 32964 ft 489 kts 51°
2026-05-06 19:14 47.59209 -20.15419 32959 ft 489 kts 51°
2026-05-06 19:15 47.63001 -20.07081 32962 ft 489 kts 51°
2026-05-06 19:15 47.66176 -20.00081 32957 ft 489 kts 51°
2026-05-06 19:16 47.69951 -19.91728 32957 ft 489 kts 51°
2026-05-06 19:16 47.73744 -19.83320 32964 ft 489 kts 51°
2026-05-06 19:17 47.77505 -19.74954 32956 ft 488 kts 51°
2026-05-06 19:17 47.81272 -19.66549 32954 ft 487 kts 51°
2026-05-06 19:18 47.85020 -19.58160 32956 ft 486 kts 51°
2026-05-06 19:18 47.88772 -19.49775 32961 ft 485 kts 51°
2026-05-06 19:19 47.92517 -19.41431 32961 ft 484 kts 51°
2026-05-06 19:19 47.96263 -19.33122 32969 ft 483 kts 51°
2026-05-06 19:20 48.00027 -19.24808 32952 ft 482 kts 51°
2026-05-06 19:20 48.03775 -19.16555 32972 ft 480 kts 51°
2026-05-06 19:21 48.07537 -19.08303 32964 ft 479 kts 51°
2026-05-06 19:21 48.11293 -19.00096 32966 ft 478 kts 51°
2026-05-06 19:22 48.15057 -18.91903 32952 ft 477 kts 51°
2026-05-06 19:22 48.18815 -18.83749 32962 ft 475 kts 51°
2026-05-06 19:23 48.22584 -18.75621 32954 ft 474 kts 51°
2026-05-06 19:23 48.26363 -18.67530 32955 ft 473 kts 51°
2026-05-06 19:24 48.30156 -18.59473 32958 ft 472 kts 51°
2026-05-06 19:24 48.33954 -18.51470 32955 ft 471 kts 51°
2026-05-06 19:25 48.37779 -18.43480 32957 ft 470 kts 51°
2026-05-06 19:25 48.41626 -18.35528 32959 ft 470 kts 51°
2026-05-06 19:26 48.45492 -18.27620 32956 ft 469 kts 51°
2026-05-06 19:26 48.49381 -18.19744 32956 ft 469 kts 51°
2026-05-06 19:27 48.53284 -18.11917 32957 ft 468 kts 51°
2026-05-06 19:27 48.57216 -18.04096 32958 ft 468 kts 51°
2026-05-06 19:28 48.61159 -17.96286 32954 ft 467 kts 51°
2026-05-06 19:28 48.65115 -17.88474 32957 ft 467 kts 51°
2026-05-06 19:29 48.69065 -17.80691 32953 ft 466 kts 51°
2026-05-06 19:29 48.73040 -17.72883 32955 ft 465 kts 51°
2026-05-06 19:30 48.76978 -17.65162 32955 ft 465 kts 51°
2026-05-06 19:30 48.80925 -17.57429 32951 ft 464 kts 51°
2026-05-06 19:31 48.84889 -17.49662 32951 ft 463 kts 51°
2026-05-06 19:31 48.90791 -17.38089 32949 ft 461 kts 51°
2026-05-06 19:32 48.94716 -17.30383 32950 ft 460 kts 51°
2026-05-06 19:32 48.98633 -17.22690 32946 ft 459 kts 51°
2026-05-06 19:33 49.02542 -17.15004 32948 ft 458 kts 51°
2026-05-06 19:33 49.06433 -17.07338 32946 ft 457 kts 51°
2026-05-06 19:34 49.10313 -16.99691 32944 ft 456 kts 51°
2026-05-06 19:34 49.14190 -16.92035 32947 ft 455 kts 51°
2026-05-06 19:35 49.18048 -16.84411 32947 ft 455 kts 51°
2026-05-06 19:35 49.21931 -16.76735 32947 ft 454 kts 51°
2026-05-06 19:36 49.25778 -16.69126 32945 ft 454 kts 51°
2026-05-06 19:36 49.29656 -16.61454 32948 ft 453 kts 51°
2026-05-06 19:37 49.33506 -16.53829 32939 ft 453 kts 51°
2026-05-06 19:37 49.36718 -16.47455 32938 ft 452 kts 51°
2026-05-06 19:38 49.41193 -16.38572 32941 ft 452 kts 51°
2026-05-06 19:38 49.45033 -16.30945 32937 ft 451 kts 51°
2026-05-06 19:39 49.48879 -16.23309 32936 ft 451 kts 51°
2026-05-06 19:39 49.52714 -16.15695 32936 ft 450 kts 51°
2026-05-06 19:40 49.56551 -16.08072 32936 ft 450 kts 51°
2026-05-06 19:40 49.60376 -16.00470 32937 ft 449 kts 51°
2026-05-06 19:41 49.64212 -15.92848 32937 ft 449 kts 51°
2026-05-06 19:41 49.68031 -15.85259 32935 ft 448 kts 51°
2026-05-06 19:42 49.71856 -15.77656 32932 ft 448 kts 51°
2026-05-06 19:42 49.75663 -15.70082 32929 ft 447 kts 51°
2026-05-06 19:43 49.79488 -15.62478 32929 ft 446 kts 51°
2026-05-06 19:43 49.83300 -15.54908 32931 ft 446 kts 51°
2026-05-06 19:44 49.87108 -15.47354 32929 ft 445 kts 51°
2026-05-06 19:44 49.90920 -15.39799 32929 ft 445 kts 51°
2026-05-06 19:45 49.94752 -15.32211 32929 ft 444 kts 51°
2026-05-06 19:45 49.98549 -15.24696 32927 ft 444 kts 51°
2026-05-06 19:46 50.02364 -15.17150 32925 ft 443 kts 51°
2026-05-06 19:46 50.06166 -15.09636 32923 ft 443 kts 51°
2026-05-06 19:47 50.09981 -15.02104 32914 ft 442 kts 51°
2026-05-06 19:47 50.13784 -14.94600 32915 ft 442 kts 51°
2026-05-06 19:48 50.17592 -14.87094 32923 ft 441 kts 51°
2026-05-06 19:48 50.21420 -14.79552 32919 ft 440 kts 51°
2026-05-06 19:49 50.25199 -14.72112 32921 ft 440 kts 51°
2026-05-06 19:49 50.29028 -14.64578 32915 ft 440 kts 51°
2026-05-06 19:50 50.32812 -14.57136 32919 ft 439 kts 51°
2026-05-06 19:50 50.36631 -14.49626 32926 ft 439 kts 51°
2026-05-06 19:51 50.40442 -14.42138 32924 ft 439 kts 51°
2026-05-06 19:51 50.44236 -14.34689 32913 ft 439 kts 51°
2026-05-06 19:52 50.48041 -14.27228 32916 ft 438 kts 51°
2026-05-06 19:52 50.51845 -14.19773 32912 ft 438 kts 51°
2026-05-06 19:53 50.55664 -14.12298 32911 ft 438 kts 51°
2026-05-06 19:53 50.59481 -14.04826 32912 ft 438 kts 51°
2026-05-06 19:54 50.63311 -13.97332 32915 ft 438 kts 51°
2026-05-06 19:54 50.67137 -13.89846 32915 ft 438 kts 51°
2026-05-06 19:55 50.70937 -13.82409 32914 ft 438 kts 51°
2026-05-06 19:55 50.74756 -13.74942 32912 ft 438 kts 51°
2026-05-06 19:56 50.78586 -13.67452 32911 ft 438 kts 51°
2026-05-06 19:56 50.82426 -13.59945 32909 ft 438 kts 51°
2026-05-06 19:57 50.86235 -13.52497 32909 ft 438 kts 51°
2026-05-06 19:57 50.90081 -13.44977 32908 ft 438 kts 51°
2026-05-06 19:58 50.93915 -13.37481 32908 ft 438 kts 51°
2026-05-06 19:58 50.97743 -13.29992 32908 ft 438 kts 51°
2026-05-06 19:59 51.01567 -13.22511 32901 ft 438 kts 51°
2026-05-06 19:59 51.05407 -13.14997 32898 ft 438 kts 51°
2026-05-06 20:00 51.09243 -13.07488 32900 ft 438 kts 51°
2026-05-06 20:00 51.13091 -12.99952 32899 ft 438 kts 51°
2026-05-06 20:01 51.16936 -12.92418 32897 ft 438 kts 51°
2026-05-06 20:01 51.20779 -12.84886 32901 ft 438 kts 51°
2026-05-06 20:02 51.23992 -12.78584 32900 ft 438 kts 51°
2026-05-06 20:02 51.27837 -12.71034 32895 ft 439 kts 51°
2026-05-06 20:03 51.31681 -12.63483 32898 ft 439 kts 51°
2026-05-06 20:03 51.35530 -12.55912 32899 ft 439 kts 51°
2026-05-06 20:04 51.39164 -12.48761 32896 ft 439 kts 51°
2026-05-06 20:04 51.43153 -12.40898 32897 ft 439 kts 51°
2026-05-06 20:05 51.44765 -12.36780 32884 ft 439 kts 67°
2026-05-06 20:05 51.45554 -12.32037 32905 ft 442 kts 83°
2026-05-06 20:05 51.45419 -12.27161 33100 ft 444 kts 100°
2026-05-06 20:05 51.44374 -12.22462 33278 ft 449 kts 117°
2026-05-06 20:06 51.42516 -12.18442 33478 ft 455 kts 133°
2026-05-06 20:06 51.39972 -12.15376 33674 ft 461 kts 148°
2026-05-06 20:06 51.37074 -12.13178 33901 ft 463 kts 154°
2026-05-06 20:06 51.34066 -12.11232 33950 ft 467 kts 155°
2026-05-06 20:07 51.28016 -12.07546 33951 ft 466 kts 156°
2026-05-06 20:07 51.21955 -12.03936 33951 ft 463 kts 156°
2026-05-06 20:08 51.15907 -12.00376 33955 ft 461 kts 156°
2026-05-06 20:08 51.09891 -11.96859 33968 ft 460 kts 156°
2026-05-06 20:09 51.03892 -11.93375 33970 ft 460 kts 156°
2026-05-06 20:09 50.97863 -11.89892 33967 ft 461 kts 156°
2026-05-06 20:10 50.91808 -11.86409 33979 ft 462 kts 156°
2026-05-06 20:10 50.85767 -11.82942 33974 ft 464 kts 156°
2026-05-06 20:11 50.79678 -11.79452 33972 ft 465 kts 157°
2026-05-06 20:11 50.73592 -11.75968 33966 ft 466 kts 157°
2026-05-06 20:12 50.67501 -11.72484 33970 ft 466 kts 157°
2026-05-06 20:12 50.61397 -11.68986 33983 ft 466 kts 157°
2026-05-06 20:13 50.55338 -11.65505 33976 ft 466 kts 157°
2026-05-06 20:13 50.49260 -11.62001 33974 ft 465 kts 157°
2026-05-06 20:14 50.43177 -11.58487 33974 ft 465 kts 157°
2026-05-06 20:14 50.37110 -11.54970 33971 ft 464 kts 157°
2026-05-06 20:15 50.31073 -11.51462 33977 ft 464 kts 157°
2026-05-06 20:15 50.25000 -11.47923 33980 ft 463 kts 157°
2026-05-06 20:16 50.18979 -11.44403 33979 ft 463 kts 157°
2026-05-06 20:16 50.12978 -11.40873 33978 ft 462 kts 157°
2026-05-06 20:17 50.06949 -11.37301 33982 ft 462 kts 157°
2026-05-06 20:17 50.00938 -11.33715 33981 ft 462 kts 157°
2026-05-06 20:18 49.94936 -11.30111 33979 ft 461 kts 157°
2026-05-06 20:18 49.88953 -11.26504 33981 ft 461 kts 157°
2026-05-06 20:19 49.82983 -11.22893 33984 ft 461 kts 157°
2026-05-06 20:19 49.77030 -11.19283 33982 ft 460 kts 157°
2026-05-06 20:20 49.71091 -11.15673 33983 ft 460 kts 157°
2026-05-06 20:20 49.65135 -11.12039 33985 ft 459 kts 157°
2026-05-06 20:21 49.59220 -11.08419 33987 ft 458 kts 157°
2026-05-06 20:21 49.53300 -11.04785 33983 ft 458 kts 157°
2026-05-06 20:22 49.47384 -11.01143 33986 ft 457 kts 157°
2026-05-06 20:22 49.41467 -10.97487 33992 ft 457 kts 157°
2026-05-06 20:23 49.35560 -10.93829 33982 ft 456 kts 157°
2026-05-06 20:23 49.29673 -10.90177 33985 ft 456 kts 157°
2026-05-06 20:24 49.23836 -10.86547 33986 ft 455 kts 157°
2026-05-06 20:24 49.17969 -10.82882 33988 ft 455 kts 158°
2026-05-06 20:25 49.12102 -10.79195 33989 ft 454 kts 158°
2026-05-06 20:25 49.06256 -10.75497 33992 ft 454 kts 158°
2026-05-06 20:26 49.00470 -10.71823 33985 ft 453 kts 158°
2026-05-06 20:26 48.94662 -10.68129 33990 ft 453 kts 158°
2026-05-06 20:27 48.88868 -10.64439 33991 ft 452 kts 158°
2026-05-06 20:27 48.83047 -10.60727 33992 ft 452 kts 158°
2026-05-06 20:28 48.77230 -10.57018 33988 ft 452 kts 158°
2026-05-06 20:28 48.71459 -10.53337 33993 ft 452 kts 158°
2026-05-06 20:29 48.65631 -10.49619 33990 ft 452 kts 158°
2026-05-06 20:29 48.59868 -10.45940 33988 ft 452 kts 158°
2026-05-06 20:30 48.51147 -10.40364 33992 ft 452 kts 158°
2026-05-06 20:31 48.45363 -10.36660 33990 ft 452 kts 158°
2026-05-06 20:31 48.39576 -10.32946 33991 ft 452 kts 158°
2026-05-06 20:32 48.33829 -10.29248 33989 ft 451 kts 158°
2026-05-06 20:32 48.28031 -10.25513 33993 ft 451 kts 158°
2026-05-06 20:33 48.22302 -10.21817 33991 ft 450 kts 158°
2026-05-06 20:33 48.16555 -10.18105 33993 ft 450 kts 158°
2026-05-06 20:34 48.10799 -10.14380 33989 ft 449 kts 158°
2026-05-06 20:34 48.05087 -10.10678 33991 ft 449 kts 158°
2026-05-06 20:35 47.99354 -10.06957 33991 ft 448 kts 158°
2026-05-06 20:35 47.93630 -10.03234 33993 ft 448 kts 158°
2026-05-06 20:36 47.87933 -9.99521 33991 ft 448 kts 158°
2026-05-06 20:36 47.82239 -9.95808 33992 ft 447 kts 158°
2026-05-06 20:37 47.76539 -9.92088 33989 ft 447 kts 158°
2026-05-06 20:37 47.70833 -9.88365 33999 ft 447 kts 158°
2026-05-06 20:38 47.65181 -9.84673 33987 ft 446 kts 158°
2026-05-06 20:38 47.59483 -9.80950 33998 ft 446 kts 158°
2026-05-06 20:39 47.53788 -9.77225 33993 ft 446 kts 158°
2026-05-06 20:39 47.48143 -9.73534 33993 ft 446 kts 158°
2026-05-06 20:40 47.42468 -9.69823 33985 ft 446 kts 158°
2026-05-06 20:40 47.36822 -9.66136 33989 ft 445 kts 158°
2026-05-06 20:41 47.31154 -9.62437 33987 ft 446 kts 158°
2026-05-06 20:41 47.25485 -9.58742 33989 ft 446 kts 158°
2026-05-06 20:42 47.19808 -9.55044 33997 ft 446 kts 158°
2026-05-06 20:42 47.14123 -9.51347 33992 ft 446 kts 158°
2026-05-06 20:43 47.08467 -9.47672 33988 ft 446 kts 158°
2026-05-06 20:43 47.02770 -9.43975 33991 ft 447 kts 158°
2026-05-06 20:44 46.97103 -9.40303 33991 ft 447 kts 158°
2026-05-06 20:44 46.91394 -9.36609 33988 ft 447 kts 158°
2026-05-06 20:45 46.85727 -9.32949 33991 ft 447 kts 158°
2026-05-06 20:45 46.80035 -9.29280 33990 ft 447 kts 158°
2026-05-06 20:46 46.74336 -9.25613 33991 ft 447 kts 158°
2026-05-06 20:46 46.68675 -9.21979 33989 ft 447 kts 158°
2026-05-06 20:47 46.62980 -9.18333 33989 ft 447 kts 158°
2026-05-06 20:47 46.57283 -9.14696 33986 ft 447 kts 158°
2026-05-06 20:48 46.52546 -9.11679 33989 ft 447 kts 158°
2026-05-06 20:48 46.46839 -9.08055 33987 ft 447 kts 158°
2026-05-06 20:49 46.41128 -9.04438 33988 ft 447 kts 158°
2026-05-06 20:49 46.35441 -9.00846 33984 ft 447 kts 158°
2026-05-06 20:50 46.29715 -8.97241 33991 ft 447 kts 158°
2026-05-06 20:50 46.24032 -8.93674 33987 ft 447 kts 158°
2026-05-06 20:51 46.18317 -8.90096 33990 ft 447 kts 158°
2026-05-06 20:51 46.12602 -8.86526 33986 ft 447 kts 158°
2026-05-06 20:52 46.06870 -8.82954 33988 ft 447 kts 158°
2026-05-06 20:52 46.01194 -8.79431 33985 ft 447 kts 158°
2026-05-06 20:53 45.95461 -8.75887 33988 ft 447 kts 158°
2026-05-06 20:53 45.89773 -8.72381 33985 ft 447 kts 158°
2026-05-06 20:54 45.84032 -8.68859 33985 ft 446 kts 158°
2026-05-06 20:54 45.78329 -8.65374 33988 ft 446 kts 158°
2026-05-06 20:55 45.72639 -8.61910 33985 ft 446 kts 159°
2026-05-06 20:55 45.66914 -8.58436 33981 ft 446 kts 159°
2026-05-06 20:56 45.61176 -8.54965 33987 ft 446 kts 159°
2026-05-06 20:56 45.55460 -8.51519 33984 ft 446 kts 159°
2026-05-06 20:57 45.49742 -8.48080 33985 ft 446 kts 159°
2026-05-06 20:57 45.44014 -8.44645 33982 ft 446 kts 159°
2026-05-06 20:58 45.38303 -8.41232 33983 ft 446 kts 159°
2026-05-06 20:58 45.32592 -8.37830 33981 ft 446 kts 159°
2026-05-06 20:59 45.26886 -8.34441 33987 ft 445 kts 159°
2026-05-06 20:59 45.21165 -8.31054 33987 ft 445 kts 159°
2026-05-06 21:00 45.15434 -8.27673 33983 ft 445 kts 159°
2026-05-06 21:00 45.09718 -8.24309 33980 ft 445 kts 159°
2026-05-06 21:01 45.04001 -8.20954 33986 ft 445 kts 159°
2026-05-06 21:01 44.98278 -8.17604 33980 ft 445 kts 159°
2026-05-06 21:02 44.92546 -8.14258 33977 ft 445 kts 159°
2026-05-06 21:02 44.87215 -8.09911 33972 ft 449 kts 133°
2026-05-06 21:02 44.85522 -8.06238 33990 ft 454 kts 112°
2026-05-06 21:03 44.84836 -8.01847 33971 ft 461 kts 92°
2026-05-06 21:03 44.85261 -7.97407 33998 ft 465 kts 74°
2026-05-06 21:03 44.86363 -7.93063 33972 ft 468 kts 69°
2026-05-06 21:04 44.88585 -7.84457 33969 ft 469 kts 75°
2026-05-06 21:04 44.90071 -7.75483 33982 ft 469 kts 81°
2026-05-06 21:05 44.91026 -7.66377 33975 ft 468 kts 84°
2026-05-06 21:05 44.91810 -7.57283 33982 ft 467 kts 84°
2026-05-06 21:06 44.92584 -7.48222 33979 ft 465 kts 84°
2026-05-06 21:06 44.93376 -7.39165 33980 ft 462 kts 84°
2026-05-06 21:07 44.94165 -7.30208 33980 ft 461 kts 84°
2026-05-06 21:07 44.94951 -7.21232 33981 ft 460 kts 84°
2026-05-06 21:08 44.95729 -7.12262 33987 ft 461 kts 84°
2026-05-06 21:08 44.96502 -7.03266 33985 ft 463 kts 84°
2026-05-06 21:09 44.97272 -6.94206 33985 ft 464 kts 84°
2026-05-06 21:09 44.98032 -6.85180 33980 ft 466 kts 84°
2026-05-06 21:10 44.98795 -6.76035 33983 ft 468 kts 84°
2026-05-06 21:10 44.99546 -6.66942 33979 ft 468 kts 84°
2026-05-06 21:11 45.00295 -6.57789 33980 ft 469 kts 84°
2026-05-06 21:11 45.01036 -6.48638 33983 ft 469 kts 84°
2026-05-06 21:12 45.01770 -6.39470 33982 ft 469 kts 84°
2026-05-06 21:12 45.02497 -6.30307 33983 ft 469 kts 84°
2026-05-06 21:13 45.03214 -6.21172 33982 ft 469 kts 84°
2026-05-06 21:13 45.03927 -6.12000 33982 ft 469 kts 84°
2026-05-06 21:14 45.04629 -6.02859 33983 ft 469 kts 84°
2026-05-06 21:14 45.05327 -5.93682 33983 ft 469 kts 84°
2026-05-06 21:15 45.06016 -5.84521 33981 ft 469 kts 84°
2026-05-06 21:15 45.06699 -5.75340 33981 ft 469 kts 84°
2026-05-06 21:16 45.07374 -5.66163 33981 ft 469 kts 84°
2026-05-06 21:16 45.08040 -5.57014 33983 ft 469 kts 84°
2026-05-06 21:17 45.08703 -5.47802 33981 ft 470 kts 85°
2026-05-06 21:17 45.09358 -5.38588 33983 ft 470 kts 85°
2026-05-06 21:18 45.10004 -5.29408 33985 ft 470 kts 85°
2026-05-06 21:18 45.10643 -5.20202 33983 ft 470 kts 85°
2026-05-06 21:19 45.11276 -5.10998 33982 ft 470 kts 85°
2026-05-06 21:19 45.11902 -5.01759 33981 ft 470 kts 85°
2026-05-06 21:20 45.12522 -4.92516 33979 ft 470 kts 85°
2026-05-06 21:20 45.13135 -4.83265 33980 ft 471 kts 85°
2026-05-06 21:21 45.13736 -4.74060 33981 ft 471 kts 85°
2026-05-06 21:21 45.14331 -4.64851 33978 ft 471 kts 85°
2026-05-06 21:22 45.14921 -4.55596 33980 ft 471 kts 85°
2026-05-06 21:22 45.15504 -4.46331 33975 ft 471 kts 85°
2026-05-06 21:23 45.16076 -4.37129 33978 ft 471 kts 85°
2026-05-06 21:23 45.16644 -4.27866 33979 ft 471 kts 85°
2026-05-06 21:24 45.17204 -4.18608 33978 ft 472 kts 85°
2026-05-06 21:24 45.17756 -4.09345 33979 ft 472 kts 85°
2026-05-06 21:25 45.18303 -4.00058 33983 ft 472 kts 85°
2026-05-06 21:25 45.18839 -3.90807 33978 ft 472 kts 85°
2026-05-06 21:26 45.19370 -3.81520 33976 ft 472 kts 85°
2026-05-06 21:26 45.19891 -3.72280 33978 ft 472 kts 85°
2026-05-06 21:27 45.20409 -3.62967 33976 ft 472 kts 85°
2026-05-06 21:27 45.20917 -3.53682 33975 ft 473 kts 85°
2026-05-06 21:28 45.21419 -3.44377 33971 ft 473 kts 85°
2026-05-06 21:28 45.21910 -3.35125 33974 ft 473 kts 85°
2026-05-06 21:29 45.22397 -3.25804 33974 ft 473 kts 85°
2026-05-06 21:29 45.22876 -3.16503 33974 ft 473 kts 85°
2026-05-06 21:30 45.23345 -3.07238 33975 ft 473 kts 85°
2026-05-06 21:30 45.23734 -2.99441 33968 ft 473 kts 86°
2026-05-06 21:31 45.24188 -2.90192 33970 ft 472 kts 86°
2026-05-06 21:31 45.24639 -2.80873 33969 ft 472 kts 85°
2026-05-06 21:32 45.25080 -2.71585 33969 ft 472 kts 85°
2026-05-06 21:32 45.25728 -2.57639 33966 ft 471 kts 85°
2026-05-06 21:33 45.26149 -2.48381 33966 ft 470 kts 85°
2026-05-06 21:33 45.26563 -2.39101 33964 ft 470 kts 85°
2026-05-06 21:34 45.26967 -2.29875 33962 ft 470 kts 85°
2026-05-06 21:34 45.27365 -2.20629 33961 ft 469 kts 85°
2026-05-06 21:35 45.27756 -2.11369 33963 ft 469 kts 85°
2026-05-06 21:35 45.28138 -2.02139 33958 ft 468 kts 85°
2026-05-06 21:36 45.28512 -1.92928 33958 ft 468 kts 85°
2026-05-06 21:36 45.28880 -1.83668 33958 ft 468 kts 85°
2026-05-06 21:37 45.29237 -1.74497 33956 ft 468 kts 85°
2026-05-06 21:37 45.29590 -1.65252 33954 ft 468 kts 85°
2026-05-06 21:38 45.29935 -1.56007 33954 ft 468 kts 86°
2026-05-06 21:38 45.30272 -1.46801 33952 ft 468 kts 86°
2026-05-06 21:39 45.30604 -1.37491 33954 ft 469 kts 86°
2026-05-06 21:39 45.30926 -1.28252 33956 ft 469 kts 86°
2026-05-06 21:40 45.31241 -1.19026 33958 ft 469 kts 86°
2026-05-06 21:40 45.31549 -1.09767 33960 ft 470 kts 86°
2026-05-06 21:41 45.31851 -1.00477 33951 ft 470 kts 86°
2026-05-06 21:41 45.32145 -0.91172 33949 ft 470 kts 86°
2026-05-06 21:42 45.32432 -0.81884 33948 ft 471 kts 86°
2026-05-06 21:42 45.32710 -0.72608 33942 ft 471 kts 86°
2026-05-06 21:43 45.32982 -0.63304 33940 ft 471 kts 86°
2026-05-06 21:43 45.33245 -0.54030 33948 ft 471 kts 86°
2026-05-06 21:44 45.33501 -0.44747 33942 ft 471 kts 86°
2026-05-06 21:44 45.33751 -0.35447 33945 ft 471 kts 86°
2026-05-06 21:45 45.33992 -0.26132 33944 ft 471 kts 86°
2026-05-06 21:45 45.34227 -0.16811 33941 ft 472 kts 86°
2026-05-06 21:46 45.34453 -0.07497 33943 ft 472 kts 86°
2026-05-06 21:46 45.34673 0.01849 33946 ft 472 kts 86°
2026-05-06 21:47 45.34885 0.11177 33939 ft 472 kts 86°
2026-05-06 21:47 45.35090 0.20534 33938 ft 472 kts 86°
2026-05-06 21:48 45.35286 0.29841 33937 ft 473 kts 87°
2026-05-06 21:48 45.35475 0.39187 33941 ft 473 kts 87°
2026-05-06 21:49 45.35657 0.48547 33935 ft 473 kts 87°
2026-05-06 21:49 45.35831 0.57925 33939 ft 474 kts 87°
2026-05-06 21:50 45.35998 0.67287 33941 ft 474 kts 87°
2026-05-06 21:50 45.36156 0.76608 33944 ft 474 kts 87°
2026-05-06 21:51 45.36307 0.85974 33935 ft 475 kts 87°
2026-05-06 21:51 45.36451 0.95369 33942 ft 475 kts 87°
2026-05-06 21:52 45.36588 1.04767 33933 ft 475 kts 87°
2026-05-06 21:52 45.36716 1.14137 33932 ft 475 kts 88°
2026-05-06 21:53 45.36837 1.23548 33922 ft 475 kts 88°
2026-05-06 21:53 45.36951 1.32979 33917 ft 475 kts 88°
2026-05-06 21:54 45.37056 1.42309 33923 ft 475 kts 88°
2026-05-06 21:54 45.37154 1.51741 33919 ft 475 kts 88°
2026-05-06 21:55 45.37244 1.61142 33921 ft 475 kts 88°
2026-05-06 21:55 45.37326 1.70477 33924 ft 475 kts 89°
2026-05-06 21:56 45.37401 1.79904 33918 ft 475 kts 89°
2026-05-06 21:56 45.37468 1.89287 33921 ft 476 kts 89°
2026-05-06 21:57 45.37528 1.98736 33923 ft 476 kts 89°
2026-05-06 21:57 45.37580 2.08156 33926 ft 477 kts 89°
2026-05-06 21:58 45.37624 2.17603 33927 ft 478 kts 89°
2026-05-06 21:58 45.37661 2.27055 33927 ft 478 kts 89°
2026-05-06 21:59 45.37689 2.36484 33927 ft 479 kts 89°
2026-05-06 21:59 45.37710 2.45987 33926 ft 480 kts 89°
2026-05-06 22:00 45.37723 2.55491 33926 ft 480 kts 89°
2026-05-06 22:00 45.37727 2.60219 33520 ft 480 kts 89°
2026-05-06 22:00 45.37728 2.64933 32936 ft 476 kts 89°
2026-05-06 22:01 45.37728 2.69647 32384 ft 472 kts 89°
2026-05-06 22:01 45.37725 2.74302 31841 ft 468 kts 89°
2026-05-06 22:01 45.37721 2.78891 31314 ft 465 kts 89°
2026-05-06 22:01 45.37715 2.83490 30789 ft 461 kts 89°
2026-05-06 22:02 45.37707 2.88049 30275 ft 458 kts 89°
2026-05-06 22:02 45.37697 2.92546 29712 ft 454 kts 89°
2026-05-06 22:02 45.37686 2.97010 29115 ft 451 kts 89°
2026-05-06 22:02 45.37674 3.01462 28515 ft 446 kts 89°
2026-05-06 22:03 45.37660 3.05836 27941 ft 443 kts 89°
2026-05-06 22:03 45.37644 3.10255 27381 ft 447 kts 89°
2026-05-06 22:03 45.37627 3.14682 26839 ft 452 kts 89°
2026-05-06 22:03 45.37608 3.19134 26301 ft 454 kts 89°
2026-05-06 22:04 45.37587 3.23669 25756 ft 454 kts 89°
2026-05-06 22:04 45.37563 3.28118 25239 ft 453 kts 89°
2026-05-06 22:04 45.37538 3.32615 24720 ft 451 kts 89°
2026-05-06 22:04 45.37511 3.37082 24204 ft 447 kts 89°
2026-05-06 22:05 45.37486 3.41455 23700 ft 441 kts 89°
2026-05-06 22:05 45.37457 3.45804 23134 ft 434 kts 89°
2026-05-06 22:05 45.37426 3.50067 22560 ft 430 kts 89°
2026-05-06 22:05 45.37393 3.54279 21994 ft 426 kts 89°
2026-05-06 22:06 45.37359 3.58510 21438 ft 422 kts 90°
2026-05-06 22:06 45.37324 3.62649 20897 ft 419 kts 90°
2026-05-06 22:06 45.37289 3.66759 20365 ft 417 kts 90°
2026-05-06 22:06 45.37252 3.70866 19839 ft 414 kts 90°
2026-05-06 22:07 45.37214 3.74988 19313 ft 412 kts 90°
2026-05-06 22:07 45.37175 3.79030 18816 ft 410 kts 90°
2026-05-06 22:07 45.37135 3.83056 18314 ft 408 kts 90°
2026-05-06 22:07 45.37093 3.87092 17750 ft 406 kts 90°
2026-05-06 22:08 45.37050 3.91109 17186 ft 403 kts 90°
2026-05-06 22:08 45.37007 3.95048 16645 ft 401 kts 90°
2026-05-06 22:08 45.36984 3.99018 16089 ft 398 kts 86°
2026-05-06 22:08 45.37643 4.02778 15526 ft 387 kts 62°
2026-05-06 22:09 45.39229 4.05741 15019 ft 372 kts 43°
2026-05-06 22:09 45.41134 4.08108 14515 ft 361 kts 38°
2026-05-06 22:09 45.43061 4.10373 13992 ft 352 kts 39°
2026-05-06 22:09 45.44863 4.12624 13459 ft 344 kts 41°
2026-05-06 22:10 45.46597 4.14965 12933 ft 336 kts 43°
2026-05-06 22:10 45.48203 4.17275 12608 ft 324 kts 45°
2026-05-06 22:10 45.49221 4.18794 12377 ft 317 kts 45°
2026-05-06 22:10 45.50712 4.21074 12027 ft 308 kts 46°
2026-05-06 22:11 45.52597 4.24016 11563 ft 297 kts 47°
2026-05-06 22:11 45.53511 4.25456 11354 ft 292 kts 47°
2026-05-06 22:11 45.54850 4.27578 11019 ft 285 kts 47°
2026-05-06 22:11 45.56165 4.29669 10697 ft 281 kts 47°
2026-05-06 22:12 45.57461 4.31735 10377 ft 278 kts 47°
2026-05-06 22:12 45.58740 4.33778 10065 ft 276 kts 47°
2026-05-06 22:12 45.60023 4.35830 9739 ft 273 kts 47°
2026-05-06 22:12 45.61288 4.37857 9394 ft 274 kts 47°
2026-05-06 22:13 45.62543 4.39869 9061 ft 274 kts 47°
2026-05-06 22:13 45.63818 4.41914 8727 ft 275 kts 47°
2026-05-06 22:13 45.65079 4.43940 8391 ft 275 kts 47°
2026-05-06 22:13 45.66356 4.45994 8063 ft 276 kts 47°
2026-05-06 22:14 45.67637 4.48055 7732 ft 276 kts 47°
2026-05-06 22:14 45.68906 4.50099 7403 ft 276 kts 47°
2026-05-06 22:14 45.70194 4.52174 7077 ft 277 kts 47°
2026-05-06 22:14 45.71458 4.54212 6768 ft 277 kts 48°
2026-05-06 22:15 45.72744 4.56288 6447 ft 278 kts 48°
2026-05-06 22:15 45.74019 4.58347 6121 ft 278 kts 48°
2026-05-06 22:15 45.75310 4.60434 5818 ft 277 kts 48°
2026-05-06 22:15 45.76584 4.62495 5564 ft 275 kts 48°
2026-05-06 22:16 45.77840 4.64530 5298 ft 272 kts 48°
2026-05-06 22:16 45.79092 4.66559 5050 ft 269 kts 48°
2026-05-06 22:16 45.80325 4.68558 4794 ft 267 kts 48°
2026-05-06 22:16 45.81538 4.70525 4536 ft 264 kts 48°
2026-05-06 22:17 45.82750 4.72494 4280 ft 262 kts 48°
2026-05-06 22:17 45.83956 4.74452 4019 ft 260 kts 48°
2026-05-06 22:17 45.85134 4.76367 3762 ft 256 kts 48°
2026-05-06 22:17 45.86305 4.78272 3510 ft 249 kts 48°
2026-05-06 22:18 45.87417 4.80083 3291 ft 237 kts 48°
2026-05-06 22:18 45.88483 4.81824 3031 ft 225 kts 50°
2026-05-06 22:18 45.89140 4.83751 2828 ft 210 kts 83°
2026-05-06 22:18 45.88971 4.85733 2697 ft 194 kts 114°
2026-05-06 22:19 45.88228 4.87284 2558 ft 189 kts 138°
2026-05-06 22:19 45.87112 4.88272 2439 ft 186 kts 160°
2026-05-06 22:19 45.85921 4.88830 2323 ft 178 kts 164°
2026-05-06 22:19 45.84740 4.89328 2211 ft 173 kts 165°
2026-05-06 22:20 45.83597 4.89806 2106 ft 172 kts 164°
2026-05-06 22:20 45.82439 4.90293 2064 ft 172 kts 164°
2026-05-06 22:20 45.81307 4.90743 2120 ft 165 kts 166°
2026-05-06 22:20 45.80245 4.91178 2062 ft 147 kts 163°
2026-05-06 22:21 45.79320 4.91571 1959 ft 134 kts 165°
2026-05-06 22:21 45.78429 4.91955 1787 ft 134 kts 163°
2026-05-06 22:21 45.77513 4.92365 1629 ft 141 kts 163°
2026-05-06 22:21 45.76571 4.92770 1394 ft 140 kts 163°
2026-05-06 22:22 45.75642 4.93166 1172 ft 139 kts 163°
2026-05-06 22:22 45.74737 4.93557 967 ft 134 kts 162°
2026-05-06 22:22 45.73836 4.93942 781 ft 135 kts 163°
2026-05-06 22:22 45.72968 4.94321 661 ft 120 kts 163°
2026-05-06 22:23 45.72373 4.94572 664 ft 32 kts 164°
2026-05-06 22:23 45.72198 4.94649 663 ft 26 kts 163°
2026-05-06 22:23 45.72033 4.94720 668 ft 21 kts 163°
2026-05-06 22:23 45.71928 4.94689 669 ft 17 kts 237°
2026-05-06 22:24 45.71942 4.94543 668 ft 16 kts 321°